     2              OBSERVATION DATA    G (GPS)             RINEX VERSION / TYPE
ASHTORIN ICS 05 - DEC - 99 18:25                            PGM / RUN BY / DATE
Rover                                                       COMMENT
????                                                        MARKER NAME
                                                            MARKER NUMBER
RLW ICS                                                     OBSERVER / AGENCY
217 ASHTECH Z-XII3 4J00 1C63                                REC # / TYPE / VERS
742 choke ring                                              ANT # / TYPE
 -2325590.4800 -4725395.2700  3586889.1500                  APPROX POSITION XYZ
        2.0000        0.0000        0.0000                  ANTENNA: DELTA H/E/N
     1     1                                                WAVELENGTH FACT L1/2
     7    L1    L2    C1    P1    P2    D1    D2            # / TYPES OF OBSERV
    10.0000                                                 INTERVAL
                                                            LEAP SECONDS
  1980     4    13    22     7   20.000000      GPS         TIME OF FIRST OBS
  1980     4    13    22    29   30.000000      GPS         TIME OF LAST OBS
                                                            END OF HEADER
 80  4 13 22  7 20.0000000  0  5G31G03G19G18G13                      0.001435369
      3179.63019      1126.53557  18392228.980           0.0005   18392242.8515
      -374.522        -291.835
     18208.09218      6385.54852  21082877.997           0.0005          0.0005
     -2123.066       -1654.337
     -2756.75319         0.000 1  17251017.637           0.000           0.000
       437.528         340.931
     12487.22419         0.000 1  17903512.779           0.000           0.000
     -2058.141       -1603.746
     -8008.16719         0.000 1  17821800.203           0.000           0.000
      2204.739        1717.978
 80  4 13 22  7 30.0000000  0  6G31G03G27G19G18G13                   0.001432488
      6956.105 9      4069.23757  18392947.472    18392948.9334   18392958.6755
      -381.396        -297.192
     39453.475 8     22940.41842  21086923.271           0.0004          0.0004
     -2126.654       -1657.133
    -23166.09119     -3175.40752  17835002.315           0.0005          0.0005
      2171.970        1692.444
     -7117.996 9     -2676.05249  17250187.791           0.0004   17250198.0764
       434.412         338.503
     33086.707 9     12653.85348  17907433.735           0.0004   17907444.8364
     -2062.541       -1607.175
    -30033.589 9    -13521.88658  17817610.750           0.0005   17817620.2595
      2199.824        1714.149
 80  4 13 22  7 40.0000000  3  2
E16S                                                        MARKER NAME
--> THIS IS THE START OF A NEW SITE <---                    COMMENT
 80  4 13 22  7 40.0000000  0  7G31G02G03G27G19G18G13                0.001428639
     10801.093 9      7065.32447  18393679.312    18393680.5315   18393690.4824
      -387.664        -302.076
    -23295.18619         0.000 1  19051183.041           0.000           0.000
      2390.348        1862.609
     60734.777 9     39523.25542  21090973.056           0.0004          0.0004
     -2129.715       -1659.518
    -44883.402 9    -20098.34358  17830870.309    17830872.1294   17830881.2205
      2171.454        1692.042
    -11452.002 9     -6053.19959  17249363.115    17249364.4675   17249373.3475
       432.297         336.855
     53731.296 9     28740.52358  17911362.180    17911364.0055   17911373.5245
     -2066.468       -1610.235
    -52010.712 9    -30646.90358  17813428.856    17813430.3675   17813438.2905
      2195.613        1710.867
 80  4 13 22  7 50.0000000  0  7G31G02G03G27G19G18G13                0.001424748
     14718.742 9     10118.03947  18394425.318    18394426.0074   18394435.9954
      -395.465        -308.155
    -47177.335 9    -18350.29557  19046640.373    19046641.8825   19046652.5115
      2386.498        1859.609
     82056.940 9     56138.43745  21095030.584           0.0004          0.0004
     -2134.350       -1663.130
    -66585.436 9    -37009.00348  17826740.604    17826742.1375   17826751.2524
      2169.377        1690.424
    -15754.692 9     -9405.94348  17248544.893    17248545.6924   17248554.5884
       428.633         334.000
     74425.355 9     44865.74248  17915300.622    17915301.8694   17915311.5314
     -2071.976       -1614.527
    -73935.758 9    -47731.33648  17809256.806    17809258.1574   17809266.1434
      2189.898        1706.414
 80  4 13 22  8  0.0000000  0  7G31G02G03G27G19G18G13                0.001420870
     18708.108 9     13226.64347  18395184.769    18395185.1444   18395195.1144
      -402.876        -313.929
    -71027.981 9    -36935.17547  19042101.953    19042102.9275   19042113.7274
      2383.209        1857.046
    103418.149 8     72783.49645  21099095.337           0.0004          0.0004
     -2138.350       -1666.247
    -88274.302 9    -53909.39548  17822614.107    17822614.8914   17822623.9954
      2167.893        1689.267
    -20027.557 9    -12735.44549  17247732.113    17247732.5704   17247741.4784
       425.452         331.521
     95168.482 9     61029.19448  17919248.363    17919249.1734   17919258.8504
     -2077.122       -1618.537
    -95810.583 9    -64776.63148  17805094.443    17805095.4414   17805103.5544
      2184.697        1702.361
 80  4 13 22  8 10.0000000  0  7G31G02G03G27G19G18G13                0.000834099
     22766.910 9     16389.34547  21993466.843    21993466.9624   21993476.9924
      -409.967        -319.455
    -94817.057 9    -55472.07847  22635084.876    22635085.1334   22635096.2694
      2380.230        1854.725
    124793.042 8     89439.16445  24700672.291    24700671.6364   24700692.3074
     -2141.913       -1669.023
   -109922.476 9    -70778.07948  21416004.438    21416004.8964   21416014.0004
      2166.799        1688.415
    -24263.769 9    -16036.38449  20844435.661    20844435.9204   20844444.8354
       422.639         329.329
    115937.866 9     77213.11548  21520710.441    21520710.9704   21520720.6614
     -2081.852       -1622.222
   -117607.771 9    -81761.43548  21398456.243    21398457.0694   21398465.1884
      2179.944        1698.658
 80  4 13 22  8 20.0000000  0  7G31G02G03G27G19G18G13                0.000830244
     26907.374 9     19615.68847  21994254.855    21994254.8374   21994264.9064
      -417.711        -325.489
   -118598.986 9    -74003.40847  22630559.503    22630559.5164   22630570.8134
      2376.562        1851.866
    146236.003 9    106147.86445  24704752.780    24704752.5004   24704770.4204
     -2146.331       -1672.466
   -131578.399 9    -87652.79948  21411883.667    21411883.9164   21411893.0184
      2164.759        1686.825
    -28470.264 9    -19314.16448  20843635.290    20843635.4394   20843644.3804
       419.013         326.504
    136786.425 9     93458.72748  21524677.945    21524678.3154   21524688.0414
     -2087.465       -1626.596
   -139376.370 9    -98723.96148  21394313.942    21394314.6574   21394322.7504
      2174.250        1694.221
 80  4 13 22  8 30.0000000  0  7G31G02G03G27G19G18G13                0.000826393
     31119.213 9     22897.64247  21995056.391    21995056.3024   21995066.3534
      -424.517        -330.792
   -142349.604 9    -92510.34848  22626040.188    22626040.0994   22626051.3114
      2373.742        1849.669
    167717.979 8    122886.99745  24708840.677    24708840.1674   24708855.5204
     -2149.952       -1675.287
   -153218.986 9   -104515.57248  21407765.729    21407765.8484   21407774.9354
      2163.416        1685.779
    -32645.433 9    -22567.53748  20842840.868    20842840.9494   20842849.8994
       416.142         324.266
    157686.020 9    109744.10448  21528655.155    21528655.4034   21528665.1264
     -2092.335       -1630.391
   -161092.217 9   -115645.37748  21390181.639    21390182.2714   21390190.3684
      2169.151        1690.248
 80  4 13 22  8 40.0000000  0  7G31G02G03G27G19G18G13                0.000822543
     35399.103 9     26232.62647  21995870.892    21995870.7404   21995880.8024
      -431.396        -336.153
   -166072.280 9   -110995.52247  22621526.118    22621525.9544   22621537.0814
      2370.912        1847.464
    189236.190 8    139654.37845  24712935.519    24712935.3054   24712950.8974
     -2153.667       -1678.182
   -174845.797 9   -121367.61548  21403650.357    21403650.3954   21403659.4984
      2162.013        1684.685
    -36791.476 9    -25798.21848  20842051.984    20842051.9884   20842060.9464
       413.175         321.955
    178634.470 9    126067.54948  21532641.603    21532641.7554   21532651.5004
     -2097.253       -1634.223
   -182756.424 9   -132526.56348  21386059.132    21386059.6884   21386067.7904
      2163.876        1686.137
 80  4 13 22  8 50.0000000  0  7G31G02G03G27G19G18G13                0.000818696
     39751.630 9     29624.20747  21996699.196    21996698.9984   21996709.0574
      -439.510        -342.475
   -189762.799 9   -129455.61747  22617017.989    22617017.7124   22617028.9644
      2366.857        1844.304
    210795.366 9    156453.68255  24717038.129    24717037.2914   24717053.8745
     -2158.577       -1682.008
   -196454.210 9   -138205.31848  21399538.472    21399538.4584   21399547.5654
      2159.309        1682.578
    -40904.065 9    -29002.82549  20841269.451    20841269.4174   20841278.3614
       408.911         318.632
    199635.141 9    142431.69348  21536637.952    21536638.0634   21536647.8274
     -2103.301       -1638.936
   -204363.812 9   -149363.46448  21381947.444    21381947.9324   21381956.0294
      2157.312        1681.022
 80  4 13 22  9  0.0000000  0  7G31G02G03G27G19G18G13                0.000814851
     44176.401 9     33072.08347  21997541.234    21997540.9954   21997551.0594
      -445.456        -347.108
   -213422.498 9   -147891.70447  22612515.698    22612515.3224   22612526.6714
      2365.092        1842.929
    232395.047 8    173284.55045  24721148.445    24721147.9585   24721164.2524
     -2161.387       -1684.198
   -218044.674 9   -155029.03548  21395430.042    21395429.9544   21395439.0454
      2158.826        1682.202
    -44982.332 9    -32180.69248  20840493.442    20840493.3614   20840502.3164
       406.722         316.926
    220688.413 9    158836.82248  21540644.316    21540644.3734   21540654.1304
     -2107.363       -1642.101
   -225915.059 9   -166156.62548  21377846.432    21377846.8704   21377854.9494
      2152.949        1677.623
 80  4 13 22  9 10.0000000  0  8G31G02G03G27G19G18G10G13             0.000811003
     48668.469 9     36572.40447  21998396.101    21998395.8264   21998405.8874
      -452.624        -352.694
   -237056.201 9   -166307.55247  22608018.412    22608017.9904   22608029.2504
      2361.979        1840.503
    254031.068 8    190143.74245  24725265.628    24725265.2434   24725281.7964
     -2165.478       -1687.385
   -239622.772 9   -171843.11648  21391323.939    21391323.8054   21391332.8784
      2157.137        1680.886
    -49030.427 9    -35335.04548  20839723.151    20839723.0334   20839731.9964
       403.202         314.183
    241790.805 9    175280.22148  21544660.026    21544660.0524   21544669.8124
     -2112.760       -1646.306
     -4105.57518         0.000 1  24359044.918           0.000           0.000
       591.751         461.105
   -247414.808 9   -182909.66048  21373755.209    21373755.6074   21373763.6624
      2147.338        1673.250
 80  4 13 22  9 20.0000000  0  8G31G02G03G27G19G18G10G13             0.000807151
     53225.830 9     40123.59447  21999263.359    21999263.0604   21999273.1274
      -459.100        -357.740
   -260664.464 9   -184703.56047  22603525.867    22603525.4034   22603536.6494
      2359.397        1838.491
    275701.928 8    207030.06945  24729389.441    24729388.9714   24729405.5504
     -2168.953       -1690.093
   -261188.002 9   -188647.17248  21387220.239    21387220.0874   21387229.1444
      2155.667        1679.741
    -53049.483 9    -38466.77248  20838958.376    20838958.2384   20838967.2044
       400.341         311.954
    262940.496 9    191760.47948  21548684.717    21548684.7004   21548694.4724
     -2117.389       -1649.914
     -9995.622 8     -4513.54752  24357924.488           0.0005          0.0005
       586.022         456.641
   -268863.909 9   -199623.22648  21369673.572    21369673.9714   21369682.0184
      2142.326        1669.345
 80  4 13 22  9 30.0000000  0  8G31G02G03G27G19G18G10G13             0.000803296
     57845.936 9     43723.67447  22000142.576    22000142.2564   22000152.2994
      -465.526        -362.748
   -284247.924 9   -203080.25247  22599038.062    22599037.5764   22599048.8294
      2356.709        1836.397
    297405.804 8    223942.10945  24733519.516    24733519.0104   24733535.4804
     -2172.400       -1692.779
   -282740.691 9   -205441.45748  21383118.933    21383118.7614   21383127.8024
      2154.232        1678.622
    -57041.717 9    -41577.59749  20838198.698    20838198.5434   20838207.5244
       397.496         309.737
    284133.817 9    208274.73448  21552717.710    21552717.6684   21552727.4374
     -2121.853       -1653.392
    -15830.707 8     -9060.36242  24356814.388           0.0004          0.0004
       580.316         452.194
   -290265.173 9   -216299.51748  21365601.092    21365601.4524   21365609.4714
      2137.402        1665.508
 80  4 13 22  9 40.0000000  0  8G31G02G03G27G19G18G10G13             0.000799442
     62530.190 9     47373.74747  22001033.988    22001033.6534   22001043.6714
      -471.343        -367.280
   -307805.350 9   -221436.66548  22594555.319    22594554.8274   22594566.0314
      2354.798        1834.908
    319144.899 8    240881.60345  24737656.335    24737655.8994   24737672.2874
     -2175.394       -1695.112
   -304278.820 9   -222224.39448  21379020.376    21379020.1784   21379029.2334
      2153.324        1677.915
    -61006.408 9    -44666.95948  20837444.262    20837444.0794   20837453.0654
       395.422         308.121
    305371.018 9    224823.18348  21556759.043    21556758.9824   21556768.7354
     -2125.613       -1656.322
    -21607.727 8    -13562.49443  24355715.517           0.0004          0.0004
       575.070         448.106
   -311617.327 9   -232937.54248  21361537.951    21361538.2864   21361546.2784
      2133.049        1662.116
 80  4 13 22  9 50.0000000  0  8G31G02G03G27G19G18G10G13             0.000795589
     67278.840 9     51073.98847  22001937.668    22001937.3114   22001947.3274
      -478.397        -372.777
   -331336.760 9   -239772.79247  22590077.475    22590076.9724   22590088.2034
      2351.504        1832.341
    340921.388 8    257850.25245  24741800.280    24741799.9274   24741816.2324
     -2179.918       -1698.637
   -325800.248 9   -238994.32148  21374925.011    21374924.7974   21374933.8334
      2150.925        1676.045
    -64943.570 9    -47734.87648  20836695.060    20836694.8694   20836703.8484
       391.943         305.410
    326652.954 9    241406.49148  21560808.895    21560808.8124   21560818.5544
     -2130.797       -1660.361
    -27325.573 8    -18017.99144  24354628.026           0.0004          0.0004
       568.507         442.992
   -332917.958 9   -249535.41948  21357484.607    21357484.9264   21357492.8994
      2127.149        1657.519
 80  4 13 22 10  0.0000000  0  8G31G02G03G27G19G18G10G13             0.000791736
     72088.000 9     54821.38547  22002852.855    22002852.4794   22002862.4914
      -484.023        -377.161
   -354845.157 9   -258090.97747  22585603.943    22585603.4234   22585614.7234
      2349.590        1830.849
    362733.192 8    274846.40045  24745950.900    24745950.6624   24745966.8924
     -2182.997       -1701.037
   -347306.475 9   -255752.40348  21370832.533    21370832.3024   21370841.3404
      2149.764        1675.141
    -68855.410 9    -50783.05848  20835950.675    20835950.4724   20835959.4624
       389.857         303.785
    347977.012 9    258022.62348  21564866.768    21564866.6524   21564876.3854
     -2134.548       -1663.284
    -32988.736 8    -22430.78644  24353550.681           0.0004          0.0004
       563.568         439.144
   -354168.368 9   -266094.16248  21353440.812    21353441.1084   21353449.0714
      2122.466        1653.870
 80  4 13 22 10 10.0000000  0  8G31G02G03G27G19G18G10G13             0.000787881
     76959.283 9     58617.19247  22003779.853    22003779.4694   22003789.4644
      -489.771        -381.640
   -378328.515 9   -276389.66747  22581135.246    22581134.7194   22581146.0214
      2347.545        1829.256
    384581.690 8    291871.14345  24750108.587    24750108.3624   24750124.5674
     -2186.272       -1703.589
   -368795.287 9   -272496.91148  21366743.361    21366743.1134   21366752.1484
      2148.439        1674.108
    -72740.883 9    -53810.69449  20835211.311    20835211.0994   20835220.0924
       387.665         302.077
    369343.786 9    274672.03648  21568932.751    21568932.6324   21568942.3584
     -2138.370       -1666.262
    -38597.434 8    -26801.11145  24352483.582           0.0004          0.0004
       558.596         435.270
   -375366.184 9   -282611.92048  21349407.018    21349407.3064   21349415.2644
      2117.608        1650.084
 80  4 13 22 10 20.0000000  0  8G31G02G03G27G19G18G10G13             0.000784022
     81889.039 9     62458.56547  22004717.968    22004717.5884   22004727.5814
      -496.274        -386.707
   -401790.481 9   -294671.68447  22576670.591    22576670.0454   22576681.4034
      2344.766        1827.090
    406463.931 8    308922.18845  24754272.657    24754272.4044   24754288.6754
     -2190.298       -1706.726
   -390269.911 9   -289230.36148  21362656.871    21362656.6214   21362665.6604
      2146.388        1672.510
    -76603.470 9    -56820.49348  20834476.301    20834476.0784   20834485.0564
       384.759         299.812
    390748.713 9    291351.18348  21573005.994    21573005.8714   21573015.5794
     -2142.679       -1669.620
    -44155.268 8    -31131.84045  24351426.107           0.0004          0.0004
       552.880         430.816
   -396514.442 9   -299091.06848  21345382.662    21345382.9384   21345390.8714
      2112.015        1645.726
 80  4 13 22 10 30.0000000  0  8G31G02G03G27G19G18G10G13             0.000780163
     86880.863 9     66348.29247  22005667.899    22005667.5004   22005677.5014
      -502.401        -391.481
   -425227.461 9   -312934.22547  22572210.640    22572210.0844   22572221.4834
      2342.343        1825.202
    428384.134 8    326002.81445  24758443.923    24758443.6654   24758459.9294
     -2194.028       -1709.632
   -411726.524 9   -305949.78148  21358573.826    21358573.5734   21358582.5974
      2144.665        1671.168
    -80440.185 9    -59810.13549  20833746.208    20833745.9764   20833754.9444
       382.252         297.859
    412193.463 9    308061.35748  21577086.826    21577086.6894   21577096.3704
     -2146.587       -1672.665
    -49657.902 8    -35419.59645  24350379.109           0.0004   24350397.1354
       547.384         426.533
   -417609.237 9   -315528.55248  21341368.472    21341368.7414   21341376.6714
      2106.734        1641.611
 80  4 13 22 10 40.0000000  0  8G31G02G03G27G19G18G10G13             0.000776302
     91934.629 9     70286.29147  22006629.608    22006629.1964   22006639.2014
      -508.588        -396.302
   -448638.945 9   -331176.92547  22567755.578    22567755.0224   22567766.3774
      2339.717        1823.156
    450342.671 8    343113.29945  24762622.498    24762622.2584   24762638.5704
     -2197.874       -1712.629
   -433165.382 9   -322655.36948  21354494.169    21354493.8924   21354502.9174
      2142.878        1669.775
    -84251.109 9    -62779.68549  20833021.033    20833020.7924   20833029.7734
       379.687         295.860
    433678.060 9    324802.58048  21581175.234    21581175.0814   21581184.7714
     -2150.541       -1675.746
    -55105.213 8    -39664.24845  24349342.649    24349343.4064   24349358.2714
       541.881         422.245
   -438650.444 9   -331924.28048  21337364.477    21337364.7344   21337372.6754
      2101.386        1637.444
 80  4 13 22 10 50.0000000  0  8G31G02G03G27G19G18G10G13             0.000772440
     97047.675 9     74270.48147  22007602.597    22007602.1834   22007612.1954
      -514.857        -401.187
   -472027.086 9   -349401.43947  22563304.996    22563304.4414   22563315.7104
      2337.084        1821.104
    472335.777 8    360250.71745  24766807.677    24766807.4134   24766823.7334
     -2201.588       -1715.523
   -454589.879 9   -339349.76748  21350417.221    21350416.9374   21350425.9664
      2141.209        1668.475
    -88040.073 9    -65732.12048  20832300.033    20832299.7714   20832308.7434
       377.289         293.991
    455198.820 9    341571.98848  21585270.520    21585270.3514   21585280.0344
     -2154.437       -1678.782
    -60501.548 8    -43869.19245  24348315.812    24348315.8134   24348330.6724
       536.541         418.084
   -459642.552 9   -348281.75248  21333369.829    21333370.0764   21333378.0014
      2096.303        1633.483
 80  4 13 22 11  0.0000000  0  8G31G02G03G27G19G18G10G13             0.000768577
    102224.836 9     78304.62947  22008587.780    22008587.3654   22008597.3794
      -520.632        -405.687
   -495388.021 9   -367604.73147  22558859.555    22558858.9924   22558870.2804
      2335.072        1819.537
    494366.639 8    377417.56645  24771000.050    24770999.7474   24771016.0754
     -2204.669       -1717.924
   -475997.147 9   -356030.74048  21346343.560    21346343.2674   21346352.2884
      2140.208        1667.695
    -91804.753 9    -68665.63348  20831583.630    20831583.3774   20831592.3544
       375.574         292.655
    476758.988 9    358372.09548  21589373.308    21589373.1194   21589382.7974
     -2157.690       -1681.317
    -65843.943 8    -48032.08045  24347299.279    24347299.3514   24347312.6094
       531.862         414.438
   -480583.239 9   -364599.15348  21329384.969    21329385.2024   21329393.1174
      2091.878        1630.035
 80  4 13 22 11 10.0000000  0  8G31G02G03G27G19G18G10G13             0.000764712
    107463.614 9     82386.79147  22009584.704    22009584.2794   22009594.2854
      -527.010        -410.657
   -518725.081 9   -385789.40548  22554418.653    22554418.0624   22554429.4094
      2332.406        1817.459
    516431.895 8    394611.22245  24775198.953    24775198.7044   24775214.9544
     -2208.300       -1720.753
   -497390.954 9   -372701.22248  21342272.454    21342272.1594   21342281.1834
      2138.675        1666.500
    -95547.807 9    -71582.29449  20830871.360    20830871.0974   20830880.0934
       373.156         290.771
    498356.467 9    375201.28248  21593483.191    21593482.9974   21593492.6824
     -2161.692       -1684.435
    -71136.432 8    -52156.09345  24346292.191    24346292.0404   24346306.2604
       526.720         410.431
   -501476.062 9   -380879.25848  21325409.202    21325409.4354   21325417.3484
      2086.879        1626.139
 80  4 13 22 11 20.0000000  0  8G31G02G03G27G19G18G10G13             0.000760847
    112766.472 9     86518.88547  22010593.814    22010593.3684   22010603.3984
      -533.360        -415.605
   -542033.687 9   -403951.93848  22549983.208    22549982.6234   22549993.9524
      2329.487        1815.185
    538533.922 8    411833.53045  24779404.844    24779404.5974   24779420.8464
     -2211.869       -1723.534
   -518768.669 9   -389359.16848  21338204.423    21338204.1104   21338213.1264
      2137.027        1665.216
    -99266.802 9    -74480.20549  20830163.678    20830163.4114   20830172.4004
       370.828         288.957
    519994.454 9    392062.02948  21597600.782    21597600.5844   21597610.2614
     -2165.676       -1687.540
    -76375.757 8    -56238.68155  24345295.245    24345295.2574   24345309.3325
       521.397         406.283
   -522317.551 9   -397119.35748  21321443.206    21321443.4184   21321451.3394
      2081.704        1622.107
 80  4 13 22 11 30.0000000  0  8G31G02G03G27G19G18G10G13             0.000756979
    118128.996 9     90697.47447  22011614.277    22011613.8294   22011623.8634
      -539.871        -420.679
   -565316.294 9   -422094.19848  22545552.694    22545552.0934   22545563.4234
      2326.382        1812.765
    560666.875 8    429079.93045  24783616.628    24783616.3924   24783632.6664
     -2215.432       -1726.311
   -540133.118 9   -406006.77648  21334138.897    21334138.5784   21334147.6014
      2135.154        1663.756
   -102966.984 9    -77363.46149  20829459.569    20829459.2984   20829468.2824
       368.444         287.099
    541667.590 9    408950.16548  21601725.075    21601724.8704   21601734.5444
     -2169.664       -1690.647
    -81565.849 8    -60282.91245  24344307.623    24344307.5115   24344321.8644
       515.880         401.984
   -543111.117 9   -413322.12448  21317486.312    21317486.5424   21317494.4424
      2076.398        1617.972
 80  4 13 22 11 40.0000000  0  8G31G02G03G27G19G18G10G13             0.000753107
    123551.978 9     94923.16847  22012646.246    22012645.8054   22012655.8234
      -544.979        -424.659
   -588573.080 9   -440216.34547  22541127.064    22541126.4474   22541137.7934
      2324.722        1811.472
    582830.603 8    446350.30245  24787834.265    24787834.0274   24787850.3344
     -2217.614       -1728.011
   -561484.399 9   -422644.12448  21330075.893    21330075.5644   21330084.5804
      2134.869        1663.534
   -106647.889 9    -80231.69649  20828759.132    20828758.8614   20828767.8424
       367.425         286.305
    563375.674 9    425865.53148  21605856.010    21605855.7994   21605865.4784
     -2172.226       -1692.644
    -86705.766 8    -64288.05045  24343329.516    24343329.4894   24343344.0474
       511.798         398.804
   -563856.865 9   -429487.62848  21313538.528    21313538.7564   21313546.6474
      2072.544        1614.969
 80  4 13 22 11 50.0000000  0  8G31G02G03G27G19G18G10G13             0.000749234
    129038.424 9     99198.32247  22013690.299    22013689.8684   22013699.8704
      -551.893        -430.046
   -611802.534 9   -458317.18847  22536706.635    22536706.0204   22536717.3534
      2321.587        1809.029
    605028.381 8    463647.22745  24792058.380    24792058.1324   24792074.4584
     -2221.484       -1731.026
   -582821.210 9   -439270.19448  21326015.632    21326015.2984   21326024.3244
      2132.854        1661.964
   -110305.758 9    -83081.98049  20828063.071    20828062.7834   20828071.7824
       364.532         284.051
    585122.323 9    442810.95048  21609994.279    21609994.0694   21610003.7534
     -2176.671       -1696.107
    -91792.096 8    -68251.43645  24342361.637    24342361.3864   24342376.2364
       505.946         394.244
   -584551.005 9   -445612.91648  21309600.572    21309600.7934   21309608.6774
      2066.771        1610.471
 80  4 13 22 12  0.0000000  0  8G31G02G03G27G19G18G10G13             0.000745360
    134589.142 9    103523.55347  22014746.580    22014746.1334   22014756.1424
      -558.308        -435.045
   -635005.358 9   -476397.29747  22532291.275    22532290.6584   22532301.9324
      2318.904        1806.938
    627259.753 8    480970.31845  24796288.915    24796288.6264   24796304.9624
     -2224.806       -1733.615
   -604142.576 9   -455884.22948  21321958.322    21321957.9744   21321967.0004
      2131.349        1660.791
   -113939.446 9    -85913.41749  20827371.606    20827371.3364   20827380.3254
       362.092         282.150
    606907.896 9    459786.70248  21614139.957    21614139.7344   21614149.4144
     -2180.527       -1699.112
    -96825.253 8    -72173.38045  24341403.878    24341403.4074   24341418.1744
       500.642         390.111
   -605192.720 9   -461697.35148  21305672.584    21305672.7964   21305680.6794
      2061.576        1606.423
 80  4 13 22 12 10.0000000  0  8G31G02G03G27G19G18G10G13             0.000741482
    140202.177 9    107897.34147  22015814.723    22015814.2764   22015824.2684
      -564.815        -440.116
   -658183.525 9   -494458.19247  22527880.622    22527879.9974   22527891.2074
      2316.285        1804.897
    649521.796 8    498317.30845  24800525.283    24800524.9734   24800541.3254
     -2227.989       -1736.095
   -625451.552 9   -472488.60648  21317903.337    21317903.0004   21317912.0474
      2129.995        1659.736
   -117550.552 9    -88727.26248  20826684.455    20826684.1684   20826693.1534
       359.664         280.258
    628729.221 9    476790.30748  21618292.432    21618292.2054   21618301.8944
     -2184.149       -1701.934
   -101808.329 8    -76056.29145  24340455.622    24340454.9774   24340469.6914
       495.471         386.081
   -625785.307 9   -477743.50448  21301753.951    21301754.1534   21301762.0354
      2056.571        1602.523
 80  4 13 22 12 20.0000000  0  8G31G02G03G27G19G18G10G13             0.000737598
    145877.655 9    112319.78747  22016894.731    22016894.2754   22016904.2894
      -570.532        -444.570
   -681338.748 9   -512501.20548  22523474.345    22523473.7104   22523484.8864
      2314.547        1803.543
    671811.551 8    515685.89945  24804766.881    24804766.5694   24804782.9424
     -2230.188       -1737.809
   -646750.549 9   -489085.21748  21313850.277    21313849.9354   21313858.9774
      2129.570        1659.405
   -121140.780 9    -91524.83848  20826001.262    20826000.9744   20826009.9544
       358.085         279.027
    650583.527 9    493819.61648  21622451.200    21622450.9564   21622460.6494
     -2186.956       -1704.122
   -106741.680 8    -79900.46845  24339516.860    24339516.1364   24339530.8664
       490.928         382.541
   -646331.252 9   -493753.31648  21297844.158    21297844.3804   21297852.2714
      2052.485        1599.339
 80  4 13 22 12 30.0000000  0  8G31G02G03G27G19G18G10G13             0.000733711
    151617.938 9    116792.72647  22017987.100    22017986.6174   22017996.6374
      -577.586        -450.067
   -704468.868 9   -530524.65948  22519072.870    22519072.2324   22519083.3804
      2311.437        1801.120
    694130.716 8    533077.38845  24809014.112    24809013.7904   24809030.1404
     -2233.746       -1740.581
   -668037.434 9   -505672.38748  21309799.509    21309799.1614   21309808.2064
      2127.715        1657.960
   -124706.850 9    -94303.59449  20825322.653    20825322.3634   20825331.3684
       355.024         276.642
    672474.171 9    510877.23748  21626616.882    21626616.6304   21626626.3134
     -2191.241       -1707.461
   -111622.164 8    -83703.45545  24338588.142    24338587.6794   24338602.1274
       485.054         377.964
   -666828.741 9   -509725.37348  21293943.604    21293943.8324   21293951.7234
      2047.017        1595.078
 80  4 13 22 12 40.0000000  0  8G31G02G03G27G19G18G10G13             0.000729825
    157430.066 9    121321.66147  22019093.123    22019092.6464   22019102.6604
      -584.862        -455.737
   -727567.336 9   -548523.43647  22514677.360    22514676.7194   22514687.8914
      2308.279        1798.659
    716485.188 8    550496.40845  24813268.053    24813267.7514   24813284.0794
     -2237.189       -1743.264
   -689304.765 9   -522244.31648  21305752.475    21305752.1134   21305761.1654
      2125.701        1656.390
   -128241.949 9    -97058.21048  20824649.962    20824649.6664   20824658.6694
       351.931         274.232
    694408.765 9    527969.10548  21630790.923    21630790.6644   21630800.3424
     -2195.746       -1710.971
   -116442.853 8    -87459.85345  24337670.834    24337670.2954   24337684.8684
       479.080         373.309
   -687270.914 9   -525654.32148  21290053.604    21290053.8154   21290061.6944
      2041.488        1590.770
 80  4 13 22 12 50.0000000  0  8G31G02G03G27G19G18G10G13             0.000725935
    163306.188 9    125900.44947  22020211.327    22020210.8404   22020220.8554
      -591.250        -460.714
   -750642.598 9   -566504.13048  22510286.276    22510285.6194   22510296.8374
      2305.870        1796.782
    738865.578 8    567935.59645  24817526.903    24817526.6704   24817542.9464
     -2239.855       -1745.342
   -710559.664 9   -538806.56348  21301707.788    21301707.4284   21301716.4884
      2124.417        1655.390
   -131753.644 9    -99794.59148  20823981.709    20823981.3984   20823990.4104
       349.487         272.327
    716381.392 9    545090.61048  21634972.206    21634971.9414   21634981.6184
     -2199.679       -1714.036
   -121212.170 8    -91176.22045  24336763.309    24336762.6504   24336777.2764
       473.953         369.314
   -707665.382 9   -541546.10348  21286172.675    21286172.8804   21286180.7494
      2036.612        1586.970
 80  4 13 22 13  0.0000000  0  8G31G02G03G27G19G18G10G13             0.000722043
    169250.512 9    130532.38347  22021342.507    22021342.0194   22021352.0224
      -598.341        -466.240
   -773689.600 9   -584462.81448  22505900.569    22505899.9194   22505911.1534
      2302.817        1794.403
    761276.605 8    585398.68345  24821791.635    24821791.3894   24821807.6564
     -2243.172       -1747.926
   -731797.571 9   -555355.56748  21297666.342    21297665.9854   21297675.0494
      2122.419        1653.833
   -135236.054 9   -102508.15648  20823319.036    20823318.7244   20823327.7294
       346.199         269.765
    738397.924 9    562246.32148  21639161.852    21639161.5664   21639171.2464
     -2204.372       -1717.692
   -125925.885 8    -94849.23645  24335866.355    24335865.6374   24335880.2644
       468.045         364.710
   -728007.130 9   -557396.79948  21282301.790    21282301.9934   21282309.8334
      2031.079        1582.659
 80  4 13 22 13 10.0000000  0  8G31G02G03G27G19G18G10G13             0.000718149
    175261.930 9    135216.59847  22022486.457    22022485.9494   22022495.9684
      -603.770        -470.470
   -796710.529 9   -602401.17448  22501519.825    22501519.1644   22501530.4234
      2301.563        1793.426
    783717.763 8    602885.23545  24826062.095    24826061.8154   24826078.1134
     -2244.927       -1749.294
   -753019.335 9   -571891.99348  21293627.985    21293627.6014   21293636.6784
      2122.103        1653.587
   -138689.174 9   -105198.89749  20822661.934    20822661.6254   20822670.6224
       344.504         268.445
    760457.975 9    579435.94848  21643359.777    21643359.4854   21643369.1654
     -2207.480       -1720.114
   -130584.419 9    -98479.25045  24334979.900    24334979.2204   24334993.6524
       463.755         361.368
   -748297.150 9   -573207.19148  21278440.760    21278440.9344   21278448.7604
      2027.137        1579.587
 80  4 13 22 13 20.0000000  0  8G31G02G03G27G19G18G10G13             0.000714252
    181337.922 9    139951.13447  22023642.679    22023642.1754   22023652.2004
      -611.026        -476.124
   -819707.728 9   -620321.04847  22497143.577    22497142.9124   22497154.1874
      2298.261        1790.853
    806187.883 8    620394.36545  24830338.100    24830337.8154   24830354.0944
     -2248.758       -1752.279
   -774226.930 9   -588417.37548  21289592.302    21289591.9284   21289601.0084
      2119.767        1651.766
   -142113.551 9   -107867.23748  20822010.294    20822009.9814   20822018.9984
       340.697         265.478
    782559.867 9    596658.17948  21647565.659    21647565.3554   21647575.0354
     -2212.554       -1724.068
   -135188.383 9   -102066.75745  24334103.823    24334103.1834   24334117.5664
       457.415         356.427
   -768535.970 9   -588977.68148  21274589.455    21274589.6154   21274597.4374
      2021.069        1574.859
 80  4 13 22 13 30.0000000  0  8G31G02G03G27G19G18G10G13             0.000710352
    187476.878 9    144734.73147  22024810.893    22024810.3874   22024820.4034
      -616.893        -480.696
   -842681.046 9   -638222.32147  22492771.882    22492771.2254   22492782.4774
      2296.320        1789.340
    828687.092 8    637926.16445  24834619.591    24834619.3004   24834635.5624
     -2251.250       -1754.221
   -795419.686 9   -604931.19448  21285559.462    21285559.0764   21285568.1604
      2118.671        1650.912
   -145508.992 9   -110513.03148  20821364.175    20821363.8574   20821372.8554
       338.307         263.616
    804703.338 9    613912.80848  21651779.445    21651779.1394   21651788.8274
     -2216.218       -1726.923
   -139737.181 9   -105611.28445  24333238.231    24333237.5244   24333251.9314
       452.273         352.421
   -788723.203 9   -604707.97748  21270747.959    21270748.1114   21270755.9374
      2016.366        1571.194
 80  4 13 22 13 40.0000000  0  8G31G02G03G27G19G18G10G13             0.000706446
    193677.775 9    149566.59047  22025990.900    22025990.3844   22026000.4054
      -622.810        -485.306
   -865633.271 9   -656107.15947  22488404.210    22488403.5504   22488414.7824
      2294.673        1788.057
    851213.965 8    655479.52545  24838906.386    24838906.0414   24838922.3294
     -2253.693       -1756.124
   -816597.895 9   -621433.67948  21281529.385    21281528.9874   21281538.0774
      2117.455        1649.965
   -148877.718 9   -113138.01349  20820723.124    20820722.7944   20820731.8034
       335.879         261.724
    826885.731 9    631197.76248  21656000.644    21656000.3264   21656010.0034
     -2219.820       -1729.730
   -144232.780 9   -109114.35245  24332382.762    24332382.0504   24332396.4454
       447.295         348.542
   -808860.841 9   -620399.62748  21266915.896    21266916.0494   21266923.8604
      2011.750        1567.597
 80  4 13 22 13 50.0000000  0  8G31G02G03G27G19G18G10G13             0.000702535
    199940.552 9    154446.67047  22027182.675    22027182.1644   22027192.1934
      -629.687        -490.665
   -888566.481 9   -673977.16448  22484040.140    22484039.4764   22484050.7424
      2292.080        1786.036
    873769.371 8    673055.09845  24843198.599    24843198.1974   24843214.5384
     -2257.287       -1758.925
   -837761.927 9   -637925.11848  21277501.997    21277501.5954   21277510.6794
      2115.383        1648.350
   -152218.967 9   -115741.58049  20820087.318    20820086.9874   20820095.9934
       332.384         259.000
    849107.907 9    648513.72048  21660229.418    21660229.0814   21660238.7674
     -2224.563       -1733.426
   -148675.721 8   -112576.36645  24331537.316    24331536.6244   24331551.0354
       441.353         343.911
   -828949.784 9   -636053.33448  21263093.091    21263093.2454   21263101.0614
      2006.192        1563.266
 80  4 13 22 14  0.0000000  0  8G31G02G03G27G19G18G10G13             0.000698620
    206267.158 9    159376.48947  22028386.603    22028386.0864   22028396.1184
      -635.857        -495.473
   -911478.488 9   -691830.65548  22479680.130    22479679.4764   22479690.7184
      2290.102        1784.495
    896356.277 8    690655.20445  24847496.793    24847496.3394   24847512.6954
     -2260.276       -1761.254
   -858909.224 9   -654403.51548  21273477.813    21273477.3984   21273486.4924
      2113.864        1647.167
   -155529.802 9   -118321.44848  20819457.301    20819456.9614   20819465.9644
       329.580         256.815
    871373.259 9    665863.32148  21664466.398    21664466.0564   21664475.7414
     -2228.692       -1736.643
   -153063.560 8   -115995.46645  24330702.354    24330701.7074   24330716.0954
       436.013         339.750
   -848987.490 9   -651667.11348  21259280.048    21259280.1884   21259288.0004
      2001.223        1559.395
 80  4 13 22 14 10.0000000  0  8G31G02G03G27G19G18G10G13             0.000694704
    212655.378 9    164354.31247  22029602.241    22029601.7254   22029611.7464
      -642.144        -500.372
   -934370.508 9   -709668.57948  22475323.935    22475323.2664   22475334.4964
      2287.905        1782.783
    918971.757 8    708277.59845  24851800.370    24851799.9414   24851816.1934
     -2263.203       -1763.535
   -880041.275 9   -670870.03748  21269456.521    21269456.0994   21269465.1844
      2112.224        1645.889
   -158813.692 9   -120880.32248  20818832.396    20818832.0574   20818841.0694
       326.813         254.659
    893678.959 9    683244.35748  21668711.062    21668710.7164   21668720.3904
     -2232.796       -1739.841
   -157398.372 8   -119373.23745  24329877.465    24329876.8154   24329891.2134
       430.606         335.537
   -868976.111 9   -667242.65248  21255476.336    21255476.4724   21255484.2874
      1996.252        1555.521
 80  4 13 22 14 20.0000000  0  8G31G02G03G27G19G18G10G13             0.000690780
    219105.629 9    169380.47947  22030829.700    22030829.1884   22030839.1954
      -648.261        -505.138
   -957240.177 9   -727489.08348  22470971.977    22470971.3024   22470982.5094
      2285.690        1781.057
    941616.236 8    725922.59045  24856109.476    24856109.1294   24856125.3044
     -2266.059       -1765.760
   -901158.466 9   -687324.97048  21265438.036    21265437.6264   21265446.7234
      2110.837        1644.808
   -162070.756 9   -123418.28949  20818212.608    20818212.2624   20818221.2614
       324.234         252.650
    916025.320 9    700657.08648  21672963.444    21672963.1044   21672972.7864
     -2236.824       -1742.980
   -161679.952 8   -122709.52945  24329062.716    24329062.0044   24329076.5024
       425.368         331.456
   -888915.375 9   -682779.72248  21251682.023    21251682.1534   21251689.9614
      1991.317        1551.676
 80  4 13 22 14 30.0000000  0  8G31G02G03G27G19G18G10G13             0.000686854
    225619.304 9    174456.06747  22032069.221    22032068.6984   22032078.7244
      -654.627        -510.099
   -980085.882 9   -745290.90448  22466624.572    22466623.9004   22466635.0884
      2283.262        1779.165
    964291.598 8    743591.65045  24860424.454    24860424.1644   24860440.2764
     -2269.209       -1768.215
   -922259.126 9   -703767.03048  21261422.712    21261422.3094   21261431.3884
      2109.140        1643.486
   -165299.484 9   -125934.17849  20817598.209    20817597.8664   20817606.8654
       321.330         250.387
    938414.512 9    718103.18148  21677223.991    21677223.6494   21677233.3274
     -2241.194       -1746.385
   -165906.297 8   -126002.77845  24328258.482    24328257.7124   24328272.2774
       419.787         327.107
   -908802.476 9   -698276.15048  21247897.618    21247897.7614   21247905.5744
      1985.981        1547.518
 80  4 13 22 14 40.0000000  0  7G31G02G27G19G18G10G13                0.000682934
    232194.576 9    179579.64747  22033320.471    22033319.9424   22033329.9594
      -660.903        -514.989
  -1002908.755 9   -763074.93948  22462281.533    22462280.8494   22462292.0314
      2280.879        1777.308
   -943344.665 9   -720197.30248  21257410.272    21257409.8584   21257418.9384
      2107.491        1642.201
   -168500.938 9   -128428.81448  20816989.008    20816988.6654   20816997.6584
       318.454         248.146
    960846.583 9    735582.69448  21681492.705    21681492.3644   21681502.0224
     -2245.735       -1749.923
   -170079.074 8   -129254.27945  24327464.432    24327463.6264   24327478.1704
       414.286         322.820
   -928637.176 9   -713731.74848  21244123.190    21244123.3454   21244131.1454
      1980.536        1543.275
 80  4 13 22 14 50.0000000  0  7G31G02G27G19G18G10G13                0.000679012
    238826.860 9    184747.65447  22034582.565    22034582.0174   22034592.0564
      -665.425        -518.513
  -1025714.002 9   -780845.23848  22457941.828    22457941.1594   22457952.3304
      2280.362        1776.905
   -964419.686 9   -736619.37948  21253399.822    21253399.4064   21253408.4824
      2107.680        1642.348
   -171680.328 9   -130906.25648  20816384.000    20816383.6544   20816392.6354
       317.546         247.438
    983318.094 9    753092.94448  21685768.926    21685768.5744   21685778.2364
     -2248.415       -1752.012
   -174202.813 8   -132467.55344  24326679.706    24326678.8894   24326693.3924
       410.591         319.941
   -948422.932 9   -729149.19948  21240358.074    21240358.2274   21240366.0404
      1976.844        1540.398
 80  4 13 22 15  0.0000000  0  7G31G02G27G19G18G10G13                0.000675090
    245520.752 9    189963.66447  22035856.386    22035855.8584   22035865.8644
      -672.996        -524.412
  -1048497.604 9   -798598.66847  22453606.230    22453605.5524   22453616.7264
      2276.726        1774.072
   -985480.745 9   -753030.57648  21249392.044    21249391.6224   21249400.6944
      2104.914        1640.193
   -174833.897 9   -133363.58249  20815783.881    20815783.5474   20815792.5224
       313.491         244.279
   1005832.660 9    770636.73548  21690053.340    21690052.9914   21690062.6404
     -2254.092       -1756.435
   -178272.843 8   -135638.97645  24325905.198    24325904.3044   24325918.8444
       403.790         314.642
   -968155.060 9   -744524.87048  21236603.167    21236603.3224   21236611.1424
      1970.035        1535.092
 80  4 13 22 15 10.0000000  0  7G31G02G27G19G18G10G13                0.000671166
    252274.959 9    195226.67847  22037141.673    22037141.1384   22037151.1554
      -678.806        -528.940
  -1071259.241 9   -816334.98548  22449274.829    22449274.1284   22449285.3014
      2274.726        1772.514
  -1006529.622 9   -769432.28148  21245386.575    21245386.1454   21245395.2144
      2103.967        1639.455
   -177961.601 9   -135800.74749  20815188.709    20815188.3554   20815197.3414
       311.183         242.480
   1028388.505 9    788212.69848  21694345.603    21694345.2504   21694354.9024
     -2257.936       -1759.431
   -182289.987 8   -138769.19145  24325140.753    24325139.8014   24325154.3764
       398.708         310.682
   -987834.350 9   -759859.36348  21232858.321    21232858.4724   21232866.2934
      1965.036        1531.197
 80  4 13 22 15 20.0000000  0  7G31G02G27G19G18G10G13                0.000667243
    259094.847 9    200540.87047  22038439.465    22038438.9284   22038448.9264
      -684.669        -533.508
  -1093994.738 9   -834050.93648  22444948.411    22444947.7184   22444958.8844
      2272.912        1771.100
  -1027561.815 9   -785820.98348  21241384.271    21241383.8444   21241392.9124
      2102.997        1638.699
   -181059.895 9   -138215.00248  20814599.116    20814598.7804   20814607.7524
       309.035         240.806
   1050988.938 9    805823.39748  21698646.343    21698645.9954   21698655.6394
     -2261.637       -1762.315
   -186249.313 8   -141854.35145  24324387.311    24324386.2954   24324400.9334
       393.695         306.775
  -1007457.174 9   -775149.86548  21229124.230    21229124.3644   21229132.1834
      1960.130        1527.374
 80  4 13 22 15 30.0000000  0  7G31G02G27G19G18G10G13                0.000663321
    265976.325 9    205903.05347  22039748.975    22039748.4384   22039758.4464
      -690.486        -538.041
  -1116708.910 9   -851750.27248  22440626.048    22440625.3484   22440636.5074
      2271.039        1769.641
  -1048581.449 9   -802199.90648  21237384.375    21237383.9434   21237393.0084
      2102.043        1637.956
   -184134.709 9   -140610.96048  20814014.025    20814013.6694   20814022.6354
       307.009         239.228
   1073628.948 9    823464.93948  21702954.616    21702954.2554   21702963.9104
     -2265.231       -1765.115
   -190155.777 8   -144898.31344  24323643.954    24323642.8124   24323657.6094
       388.770         302.938
  -1027027.581 9   -790399.52048  21225400.097    21225400.2464   21225408.0504
      1955.195        1523.529
 80  4 13 22 15 40.0000000  0  7G31G02G27G19G18G10G13                0.000659399
    272921.856 9    211315.14647  22041070.676    22041070.1374   22041080.1364
      -697.643        -543.618
  -1139398.905 9   -869430.75548  22436308.263    22436307.5554   22436318.7634
      2267.992        1767.266
  -1069585.602 9   -818566.75748  21233387.414    21233386.9924   21233396.0444
      2099.820        1636.223
   -187184.125 9   -142987.12549  20813433.743    20813433.3984   20813442.3654
       303.898         236.804
   1096310.503 9    841138.85848  21707270.808    21707270.4344   21707280.0674
     -2270.048       -1768.869
   -194008.289 8   -147900.26345  24322910.859    24322909.6874   24322924.3964
       382.753         298.249
  -1046543.396 9   -805606.63248  21221686.368    21221686.4954   21221694.3004
      1949.088        1518.770
 80  4 13 22 15 50.0000000  0  7G31G02G27G19G18G10G13                0.000655478
    279930.386 9    216776.33047  22042404.381    22042403.8264   22042413.8254
      -703.990        -548.564
  -1162067.082 9   -887094.23848  22431994.662    22431993.9444   22432005.1724
      2265.727        1765.502
  -1090576.891 9   -834923.59248  21229392.897    21229392.4714   21229401.5314
      2098.537        1635.224
   -190211.233 9   -145345.90848  20812857.709    20812857.3514   20812866.3344
       301.571         234.990
   1119031.463 9    858843.47848  21711594.482    21711594.1054   21711603.7464
     -2274.059       -1771.994
   -197809.832 8   -150862.48145  24322187.452    24322186.3344   24322200.8884
       377.656         294.277
  -1066007.203 9   -820773.22148  21217982.518    21217982.6534   21217990.4554
      1943.832        1514.674
 80  4 13 22 16  0.0000000  0  7G31G02G27G19G18G10G13                0.000651558
    287003.443 9    222287.79947  22043750.352    22043749.7804   22043759.7944
      -710.107        -553.330
  -1184710.888 9   -904738.73548  22427685.713    22427684.9994   22427696.2234
      2263.497        1763.764
  -1111554.678 9   -851269.89648  21225400.945    21225400.5204   21225409.5834
      2097.525        1634.435
   -193213.741 9   -147685.51948  20812286.355    20812286.0054   20812294.9854
       299.401         233.299
   1141794.229 9    876580.67448  21715926.117    21715925.7404   21715935.3954
     -2277.981       -1775.050
   -201559.161 9   -153784.03045  24321473.992    24321472.9094   24321487.4024
       372.686         290.405
  -1085416.879 9   -835897.62548  21214288.996    21214289.1314   21214296.9124
      1938.680        1510.660
 80  4 13 22 16 10.0000000  0  7G31G02G27G19G18G10G13                0.000647640
    294139.058 9    227848.00847  22045108.204    22045107.6554   22045117.6574
      -717.166        -558.831
  -1207330.528 9   -922364.40548  22423381.340    22423380.6134   22423391.8284
      2260.315        1761.284
  -1132521.356 9   -867607.55148  21221411.109    21221410.6884   21221419.7524
      2095.704        1633.016
   -196193.422 9   -150007.35048  20811719.338    20811718.9784   20811727.9594
       296.406         230.966
   1164596.566 9    894348.70348  21720265.296    21720264.9084   21720274.5574
     -2282.574       -1778.629
   -205257.558 9   -156665.88445  24320770.223    24320769.1764   24320783.6854
       366.914         285.907
  -1104773.600 9   -850980.76848  21210605.541    21210605.6694   21210613.4484
      1932.619        1505.937
 80  4 13 22 16 20.0000000  0  7G31G02G27G19G18G10G13                0.000643722
    301336.965 9    233456.76647  22046477.946    22046477.3704   22046487.3874
      -723.303        -563.613
  -1229926.441 9   -939971.58647  22419081.451    22419080.7144   22419091.9364
      2258.063        1759.530
  -1153478.278 9   -883937.60248  21217423.135    21217422.7024   21217431.7684
      2094.861        1632.359
   -199151.188 9   -152312.09949  20811156.498    20811156.1324   20811165.1134
       294.277         229.307
   1187436.161 9    912145.76748  21724611.551    21724611.1504   21724620.8114
     -2286.185       -1781.443
   -208906.679 9   -159509.35245  24320075.858    24320074.7974   24320089.2774
       362.133         282.182
  -1124077.911 9   -866023.07448  21206932.044    21206932.1714   21206939.9494
      1927.523        1501.966
 80  4 13 22 16 30.0000000  0  7G31G02G27G19G18G10G13                0.000639804
    308597.867 9    239114.60147  22047859.643    22047859.0654   22047869.1024
      -728.768        -567.871
  -1252498.861 9   -957560.44948  22414786.029    22414785.2854   22414796.5064
      2256.563        1758.361
  -1174425.364 9   -900259.99148  21213437.027    21213436.5884   21213445.6484
      2094.621        1632.172
   -202085.701 9   -154598.73148  20810598.065    20810597.7284   20810606.6894
       292.660         228.047
   1210313.826 9    929972.49048  21728965.046    21728964.6384   21728974.3114
     -2289.254       -1783.834
   -212507.637 9   -162315.30345  24319390.638    24319389.5954   24319404.0324
       358.158         279.084
  -1143329.547 9   -881024.33448  21203268.582    21203268.7124   21203276.4794
      1922.975        1498.422
 80  4 13 22 16 40.0000000  0  7G31G02G27G19G18G10G13                0.000635886
    315924.560 9    244823.69947  22049253.881    22049253.2864   22049263.3204
      -736.254        -573.704
  -1275045.627 9   -975129.33348  22410495.527    22410494.7864   22410505.9934
      2253.155        1755.705
  -1195357.910 9   -916571.04948  21209453.684    21209453.2394   21209462.3064
      2092.202        1630.287
   -204992.227 9   -156863.55548  20810044.988    20810044.6354   20810053.6104
       288.953         225.158
   1233233.972 9    947832.31148  21733326.614    21733326.2084   21733335.8924
     -2294.485       -1787.910
   -216057.302 9   -165081.28045  24318715.181    24318714.1694   24318728.5994
       352.083         274.350
  -1162523.899 9   -895980.95648  21199616.011    21199616.1334   21199623.9084
      1916.282        1493.207
 80  4 13 22 16 50.0000000  0  7G31G02G27G19G18G10G13                0.000631968
    323314.666 9    250582.21747  22050660.187    22050659.5914   22050669.6344
      -742.547        -578.608
  -1297569.660 9   -992680.49348  22406209.328    22406208.5854   22406219.8064
      2250.871        1753.925
  -1216277.862 9   -932872.29148  21205472.732    21205472.2954   21205481.3554
      2091.001        1629.351
   -207873.174 9   -159108.44648  20809496.765    20809496.4204   20809505.3744
       286.459         223.215
   1256195.061 9    965724.05148  21737695.975    21737695.5714   21737705.2744
     -2298.519       -1791.054
   -219557.390 9   -167808.61045  24318049.162    24318048.1084   24318062.5644
       347.154         270.510
  -1181662.783 9   -910894.35548  21195973.987    21195974.1164   21195981.8904
      1910.811        1488.944
 80  4 13 22 17  0.0000000  0  7G31G02G27G19G18G10G13                0.000628051
    330769.514 9    256391.17547  22052078.800    22052078.2044   22052088.2574
      -749.070        -583.691
  -1320068.717 9  -1010212.19548  22401927.917    22401927.1664   22401938.3824
      2248.271        1751.899
  -1237183.063 9   -949162.04248  21201494.599    21201494.1634   21201503.2304
      2089.386        1628.093
   -210727.173 9   -161332.33549  20808953.674    20808953.3084   20808962.2824
       283.674         221.045
   1279198.595 9    983648.85348  21742073.419    21742073.0124   21742082.7424
     -2302.807       -1794.395
   -223005.585 9   -170495.50545  24317393.008    24317391.9194   24317406.4244
       341.824         266.356
  -1200745.032 9   -925763.62648  21192342.745    21192342.8934   21192350.6524
      1905.100        1484.494
 80  4 13 22 17 10.0000000  0  7G31G02G27G19G18G10G13                0.000624132
    338285.101 9    262247.47947  22053508.981    22053508.3874   22053518.4334
      -754.734        -588.104
  -1342545.425 9  -1027726.48448  22397650.732    22397649.9884   22397661.2134
      2246.374        1750.421
  -1258076.066 9   -965442.28748  21197518.802    21197518.3604   21197527.4054
      2088.561        1627.450
   -213557.483 9   -163537.77148  20808415.092    20808414.7314   20808423.7024
       281.688         219.497
   1302239.665 9   1001602.90448  21746458.006    21746457.6044   21746467.3354
     -2306.063       -1796.932
   -226405.384 9   -173144.70245  24316746.070    24316744.9114   24316759.4894
       337.462         262.957
  -1219775.377 9   -940592.44948  21188721.385    21188721.5214   21188729.2904
      1900.388        1480.822
 80  4 13 22 17 20.0000000  0  7G31G02G27G19G18G10G13                0.000620209
    345862.642 9    268152.04147  22054950.932    22054950.3414   22054960.3964
      -760.768        -592.806
  -1364997.411 9  -1045221.49748  22393378.232    22393377.5054   22393388.7304
      2244.060        1748.618
  -1278955.326 9   -981711.82348  21193545.597    21193545.1564   21193554.2064
      2087.292        1626.461
   -216362.228 9   -165723.28348  20807881.381    20807881.0094   20807889.9794
       279.269         217.612
   1325318.272 9   1019586.20948  21750849.731    21750849.3374   21750859.0794
     -2309.647       -1799.725
   -229756.933 9   -175756.30945  24316108.305    24316107.1494   24316121.7294
       332.836         259.353
  -1238753.728 9   -955380.76148  21185109.917    21185110.0414   21185117.8164
      1895.376        1476.916
 80  4 13 22 17 30.0000000  0  7G31G02G27G19G18G10G13                0.000616284
    353504.297 9    274106.57447  22056405.117    22056404.5064   22056414.5574
      -767.548        -598.089
  -1387422.560 9  -1062695.60448  22389110.856    22389110.1234   22389121.3404
      2241.055        1746.277
  -1299817.910 9   -997968.36548  21189575.578    21189575.1274   21189584.1784
      2085.230        1624.855
   -219139.478 9   -167887.37449  20807352.892    20807352.5294   20807361.4854
       276.147         215.179
   1348436.266 9   1037600.20848  21755248.956    21755248.5614   21755258.3144
     -2313.932       -1803.064
   -233057.976 9   -178328.53545  24315480.132    24315479.0174   24315493.5904
       327.397         255.115
  -1257678.254 9   -970127.12748  21181508.693    21181508.8074   21181516.5934
      1889.614        1472.426
 80  4 13 22 17 40.0000000  0  7G31G02G27G19G18G10G13                0.000612355
    361206.639 9    280108.38347  22057870.832    22057870.2134   22057880.2844
      -772.925        -602.279
  -1409824.100 9  -1080151.33348  22384848.002    22384847.2644   22384858.4084
      2239.197        1744.829
  -1320665.771 9  -1014213.43148  21185608.351    21185607.9094   21185616.9484
      2084.334        1624.156
   -221890.905 9   -170031.33949  20806829.318    20806828.9624   20806837.9094
       274.046         213.542
   1371591.327 9   1055643.08148  21759655.241    21759654.8464   21759664.5974
     -2317.089       -1805.524
   -236311.481 9   -180863.73245  24314861.034    24314859.9324   24314874.5264
       323.241         251.876
  -1276550.677 9   -984832.89948  21177917.383    21177917.5084   21177925.2814
      1884.910        1468.761
 80  4 13 22 17 50.0000000  0  7G31G02G27G19G18G10G13                0.000608421
    368971.901 9    286159.21747  22059348.519    22059347.9144   22059357.9634
      -779.664        -607.530
  -1432197.549 9  -1097585.16148  22380590.486    22380589.7454   22380600.8254
      2235.954        1742.302
  -1341495.777 9  -1030444.59148  21181644.529    21181644.0834   21181653.1294
      2082.116        1622.428
   -224611.623 9   -172151.38049  20806311.593    20806311.2334   20806320.1844
       270.530         210.803
   1394786.637 9   1073717.32348  21764069.173    21764068.7904   21764078.5494
     -2321.504       -1808.964
   -239513.842 9   -183359.07645  24314251.670    24314250.5874   24314265.1854
       317.673         247.537
  -1295366.925 9   -999494.89948  21174336.751    21174336.8744   21174344.6534
      1878.883        1464.065
 80  4 13 22 18  0.0000000  0  7G31G02G27G19G18G10G13                0.000604487
    376803.657 9    292261.87647  22060838.868    22060838.2454   22060848.3024
      -786.260        -612.670
  -1454539.044 9  -1114994.07548  22376339.008    22376338.2694   22376349.3794
      2232.800        1739.844
  -1362304.296 9  -1046659.00348  21177684.803    21177684.3554   21177693.3844
      2080.035        1620.806
   -227297.641 9   -174244.38048  20805800.472    20805800.1174   20805809.0414
       267.085         208.118
   1418025.347 9   1091825.37948  21768491.375    21768490.9904   21768500.7564
     -2325.787       -1812.302
   -242660.139 9   -185810.73745  24313652.966    24313651.8794   24313666.5164
       312.028         243.139
  -1314123.400 9  -1014110.32248  21170767.496    21170767.6194   21170775.4044
      1872.960        1459.449
 80  4 13 22 18 10.0000000  0  7G31G02G27G19G18G10G13                0.000600547
    384695.249 9    298411.16047  22062340.598    22062339.9754   22062350.0364
      -792.035        -617.170
  -1476854.572 9  -1132382.75148  22372092.485    22372091.7374   22372102.8824
      2230.335        1737.923
  -1383097.627 9  -1062861.58048  21173727.960    21173727.5084   21173736.5394
      2078.644        1619.723
   -229954.398 9   -176314.57849  20805294.900    20805294.5454   20805303.4794
       264.246         205.906
   1441300.455 9   1109961.80348  21772920.510    21772920.1154   21772929.8844
     -2329.207       -1814.966
   -245756.343 9   -188223.36845  24313063.784    24313062.6904   24313077.3714
       307.190         239.369
  -1332826.823 9  -1028684.40448  21167208.345    21167208.4684   21167216.2564
      1867.843        1455.462
 80  4 13 22 18 20.0000000  0  7G31G02G27G19G18G10G13                0.000596603
    392649.385 9    304609.18047  22063854.236    22063853.6154   22063863.6574
      -799.021        -622.614
  -1499141.225 9  -1149748.93848  22367851.481    22367850.7314   22367861.8704
      2226.852        1735.209
  -1403872.401 9  -1079049.70048  21169774.645    21169774.1944   21169783.2224
      2076.095        1617.736
   -232578.587 9   -178359.39648  20804795.538    20804795.1784   20804804.1234
       260.337         202.860
   1464614.242 9   1128128.36148  21777357.004    21777356.6104   21777366.3884
     -2333.741       -1818.499
   -248799.038 9   -190594.29445  24312484.800    24312483.7164   24312498.4124
       301.128         234.645
  -1351474.623 9  -1043215.14248  21163659.761    21163659.9014   21163667.6884
      1861.591        1450.590
 80  4 13 22 18 30.0000000  0  7G31G02G27G19G18G10G13                0.000592655
    400667.117 9    310856.74347  22065379.969    22065379.3564   22065389.3844
      -804.912        -627.204
  -1521400.647 9  -1167093.91448  22363615.653    22363614.9094   22363626.0064
      2224.651        1733.494
  -1424628.028 9  -1095222.89948  21165824.987    21165824.5254   21165833.5514
      2074.642        1616.604
   -235169.585 9   -180378.35649  20804302.496    20804302.1324   20804311.0784
       257.491         200.642
   1487966.732 9   1146325.07648  21781800.863    21781800.4664   21781810.2574
     -2337.213       -1821.205
   -251787.684 9   -192923.11845  24311916.104    24311915.0654   24311929.7304
       296.205         230.809
  -1370066.421 9  -1057702.24648  21160121.857    21160121.9974   21160129.7804
      1856.452        1446.586
 80  4 13 22 18 40.0000000  0  7G31G02G27G19G18G10G13                0.000588702
    408745.268 9    317151.39647  22066917.205    22066916.5854   22066926.6154
      -810.524        -631.577
  -1543636.476 9  -1184420.50248  22359384.323    22359383.5724   22359394.6254
      2222.737        1732.003
  -1445367.007 9  -1111383.12048  21161878.488    21161878.0114   21161887.0464
      2073.348        1615.596
   -237731.033 9   -182374.28849  20803815.076    20803814.7134   20803823.6604
       255.013         198.711
   1511356.175 9   1164550.59148  21786251.746    21786251.3594   21786261.1594
     -2340.480       -1823.751
   -254725.767 9   -195212.53145  24311357.022    24311355.9834   24311370.6614
       291.596         227.218
  -1388605.041 9  -1072147.90848  21156594.089    21156594.2044   21156601.9894
      1851.560        1442.774
 80  4 13 22 18 50.0000000  0  7G31G02G27G19G18G10G13                0.000584744
    416882.151 9    323491.80847  22068465.618    22068464.9954   22068475.0274
      -816.525        -636.253
  -1565850.131 9  -1201729.81348  22355157.207    22355156.4584   22355167.4524
      2220.307        1730.109
  -1466090.822 9  -1127531.53348  21157934.879    21157934.4074   21157943.4214
      2071.769        1614.365
   -240265.667 9   -184349.32249  20803332.758    20803332.3904   20803341.3444
       252.268         196.572
   1534780.914 9   1182803.61048  21790709.348    21790708.9534   21790718.7624
     -2344.133       -1826.597
   -257614.340 9   -197463.36445  24310807.378    24310806.3494   24310821.0314
       286.428         223.191
  -1407091.792 9  -1086553.15248  21153076.182    21153076.2974   21153084.0674
      1846.237        1438.626
 80  4 13 22 19  0.0000000  0  7G31G02G27G19G18G10G13                0.000580782
    425078.318 9    329878.42247  22070025.325    22070024.6914   22070034.7154
      -822.840        -641.174
  -1588040.023 9  -1219020.60648  22350934.585    22350933.8374   22350944.7964
      2217.558        1727.967
  -1486799.830 9  -1143668.40048  21153994.073    21153993.6114   21154002.6284
      2069.933        1612.935
   -242774.229 9   -186304.04148  20802855.394    20802855.0324   20802863.9934
       249.311         194.268
   1558240.660 9   1201083.90548  21795173.611    21795173.2234   21795183.0404
     -2347.897       -1829.530
   -260451.511 8   -199674.16145  24310267.498    24310266.4874   24310281.1984
       280.916         218.896
  -1425526.965 9  -1100918.20548  21149568.078    21149568.1944   21149575.9624
      1840.766        1434.363
 80  4 13 22 19 10.0000000  0  7G31G02G27G19G18G10G13                0.000576816
    433334.439 9    336311.74247  22071596.432    22071595.7944   22071605.8184
      -828.642        -645.695
  -1610205.650 9  -1236292.48448  22346716.568    22346715.8244   22346726.7864
      2215.361        1726.255
  -1507494.337 9  -1159793.97548  21150056.041    21150055.5724   21150064.5764
      2068.659        1611.942
   -245256.567 9   -188238.33748  20802383.029    20802382.6724   20802391.6144
       246.862         192.360
   1581733.414 9   1219389.91048  21799644.157    21799643.7654   21799653.5954
     -2350.879       -1831.854
   -263237.642 9   -201845.18545  24309737.318    24309736.2884   24309751.0484
       276.075         215.123
  -1443911.606 9  -1115243.88948  21146069.585    21146069.7044   21146077.4734
      1836.035        1430.677
 80  4 13 22 19 20.0000000  0  7G31G02G27G19G18G10G13                0.000572850
    441656.618 9    342796.54647  22073180.105    22073179.4734   22073189.4814
      -835.302        -650.885
  -1632342.348 9  -1253541.81648  22342504.095    22342503.3404   22342514.3384
      2212.502        1724.028
  -1528168.411 9  -1175903.62748  21146121.881    21146121.4164   21146130.4224
      2066.643        1610.371
   -247706.680 9   -190147.51149  20801916.797    20801916.4354   20801925.3864
       243.620         189.834
   1605263.517 9   1237725.03348  21804121.812    21804121.4244   21804131.2524
     -2354.627       -1834.774
   -265968.528 8   -203973.16345  24309217.650    24309216.5834   24309231.3944
       270.645         210.892
  -1462241.403 9  -1129526.83448  21142581.541    21142581.6544   21142589.4194
      1830.535        1426.391
 80  4 13 22 19 30.0000000  0  7G31G02G27G19G18G10G13                0.000568880
    450042.287 9    349330.82147  22074775.851    22074775.2294   22074785.2224
      -841.842        -655.981
  -1654453.546 9  -1270771.27948  22338296.465    22338295.7124   22338306.7284
      2209.733        1721.870
  -1548825.319 9  -1191999.90048  21142190.990    21142190.5294   21142199.5294
      2064.713        1608.867
   -250127.062 9   -192033.52249  20801456.209    20801455.8594   20801464.8064
       240.405         187.329
   1628828.302 9   1256087.17948  21808606.069    21808605.6764   21808615.5054
     -2358.399       -1837.714
   -268648.156 8   -206061.19345  24308707.719    24308706.6524   24308721.4994
       265.273         206.706
  -1480519.286 9  -1143769.32348  21139103.377    21139103.4794   21139111.2504
      1825.042        1422.111
 80  4 13 22 19 40.0000000  0  7G31G02G27G19G18G10G13                0.000564911
    458495.169 9    355917.46547  22076384.395    22076383.7594   22076393.7664
      -848.710        -661.332
  -1676535.238 9  -1287977.76048  22334094.450    22334093.7034   22334104.6944
      2206.657        1719.473
  -1569460.717 9  -1208079.41148  21138264.192    21138263.7294   21138272.7404
      2062.365        1607.038
   -252512.820 9   -193892.54948  20801002.218    20801001.8544   20801010.7944
       236.741         184.474
   1652433.796 9   1274481.04148  21813098.062    21813097.6784   21813107.5094
     -2362.698       -1841.063
   -271270.888 8   -208104.89845  24308208.595    24308207.5494   24308222.4314
       259.304         202.055
  -1498738.921 9  -1157966.42648  21135636.281    21135636.3984   21135644.1534
      1818.945        1417.360
 80  4 13 22 19 50.0000000  0  7G31G02G27G19G18G10G13                0.000560941
    467012.034 9    362553.97247  22078005.105    22078004.4734   22078014.4984
      -854.749        -666.038
  -1698590.822 9  -1305163.89448  22329897.396    22329896.6484   22329907.6184
      2204.357        1717.681
  -1590076.865 9  -1224143.92548  21134341.066    21134340.6134   21134349.6014
      2060.751        1605.780
   -254866.291 9   -195726.42249  20800554.378    20800554.0024   20800562.9484
       233.810         182.190
   1676078.550 9   1292905.49848  21817597.544    21817597.1514   21817606.9824
     -2366.376       -1843.929
   -273838.862 8   -210105.93245  24307719.858    24307718.8214   24307733.7644
       254.093         197.995
  -1516901.736 9  -1172119.25548  21132180.005    21132180.1184   21132187.8804
      1813.591        1413.188
 80  4 13 22 20  0.0000000  0  7G31G02G27G19G18G10G13                0.000556969
    475591.340 9    369239.12047  22079637.701    22079637.0624   22079647.0994
      -860.896        -670.828
  -1720621.273 9  -1322330.45148  22325705.124    22325704.3754   22325715.3114
      2201.976        1715.825
  -1610675.872 9  -1240195.08648  21130421.204    21130420.7354   21130429.7264
      2059.294        1604.645
   -257189.483 9   -197536.70349  20800112.287    20800111.9284   20800120.8644
       231.068         180.053
   1699762.188 9   1311360.24548  21822104.421    21822104.0224   21822113.8474
     -2370.086       -1846.820
   -276352.987 8   -212065.01445  24307241.410    24307240.3524   24307255.3374
       248.907         193.954
  -1535009.597 9  -1186229.26948  21128734.189    21128734.3094   21128742.0544
      1808.315        1409.077
 80  4 13 22 20 10.0000000  0  7G31G02G27G19G18G10G13                0.000552998
    484233.024 9    375972.89147  22081282.175    22081281.5374   22081291.5724
      -867.859        -676.254
  -1742627.452 9  -1339478.08548  22321517.480    22321516.7244   22321527.6354
      2198.825        1713.370
  -1631259.359 9  -1256234.14148  21126504.278    21126503.8204   21126512.8084
      2056.961        1602.827
   -259485.135 9   -199325.51349  20799675.450    20799675.0904   20799684.0254
       227.641         177.383
   1723483.225 9   1329844.15348  21826618.416    21826618.0134   21826627.8394
     -2374.590       -1850.330
   -278813.610 8   -213982.40245  24306773.122    24306772.0504   24306787.1364
       242.869         189.249
  -1553064.455 9  -1200297.96948  21125298.453    21125298.5774   21125306.3224
      1802.327        1404.411
 80  4 13 22 20 20.0000000  0  7G31G02G27G19G18G10G13                0.000549028
    492938.208 9    382756.13447  22082938.737    22082938.0964   22082948.1424
      -873.060        -680.306
  -1764608.178 9  -1356605.88448  22317334.674    22317333.9124   22317344.8054
      2197.452        1712.300
  -1651825.886 9  -1272259.99048  21122590.608    21122590.1354   21122599.1194
      2056.452        1602.430
   -261752.402 9   -201092.21449  20799244.015    20799243.6424   20799252.5824
       225.903         176.028
   1747243.712 9   1348358.79248  21831139.908    21831139.5104   21831149.3334
     -2377.390       -1852.512
   -281220.436 8   -215857.86345  24306315.086    24306313.9094   24306329.1184
       238.665         185.973
  -1571064.994 9  -1214324.34848  21121873.058    21121873.1804   21121880.9264
      1797.974        1401.019
 80  4 13 22 20 30.0000000  0  7G31G02G27G19G18G10G13                0.000545058
    501705.970 9    389588.13947  22084607.185    22084606.5544   22084616.6064
      -880.333        -685.974
  -1786564.041 9  -1373714.31648  22313156.596    22313155.8444   22313166.7164
      2193.903        1709.535
  -1672376.586 9  -1288273.50948  21118679.923    21118679.4634   21118688.4344
      2053.842        1600.396
   -263992.000 9   -202837.35448  20798817.828    20798817.4714   20798826.3994
       222.157         173.109
   1771043.143 9   1366903.77348  21835668.820    21835668.4124   21835678.2294
     -2382.363       -1856.387
   -283574.840 8   -217692.48145  24305866.997    24305865.7994   24305881.1034
       232.348         181.050
  -1589010.992 9  -1228308.23148  21118458.073    21118458.1694   21118465.9084
      1791.462        1395.944
 80  4 13 22 20 40.0000000  0  7G31G02G27G19G18G10G13                0.000541090
    510537.662 9    396469.96147  22086287.817    22086287.1724   22086297.2374
      -886.500        -690.779
  -1808492.790 9  -1390801.60748  22308983.664    22308982.9144   22308993.8074
      2191.338        1707.536
  -1692909.695 9  -1304273.31548  21114772.593    21114772.1354   21114781.1004
      2052.246        1599.153
   -266202.651 9   -204559.93449  20798397.165    20798396.8014   20798405.7374
       219.464         171.011
   1794884.322 9   1385481.29048  21840205.656    21840205.2704   21840215.0844
     -2386.356       -1859.498
   -285874.547 8   -219484.49045  24305429.313    24305428.1344   24305443.4484
       227.115         176.973
  -1606899.685 9  -1242247.45848  21115053.980    21115054.0714   21115061.7974
      1785.880        1391.595
 80  4 13 22 20 50.0000000  0  7G31G02G27G19G18G10G13                0.000537121
    519429.895 9    403398.96047  22087979.960    22087979.3254   22087989.3964
      -892.462        -695.425
  -1830395.484 9  -1407868.60348  22304815.692    22304814.9444   22304825.8354
      2188.693        1705.475
  -1713426.972 9  -1320260.78648  21110868.276    21110867.8164   21110876.7794
      2050.686        1597.937
   -268387.421 9   -206262.34848  20797981.417    20797981.0624   20797989.9874
       216.960         169.060
   1818764.114 9   1404088.89448  21844749.855    21844749.4624   21844759.2904
     -2390.118       -1862.430
   -288123.042 8   -221236.58945  24305001.399    24305000.1544   24305015.5564
       221.978         172.970
  -1624733.704 9  -1256144.08148  21111660.283    21111660.3844   21111668.0904
      1780.487        1387.392
 80  4 13 22 21  0.0000000  0  7G31G02G27G19G18G10G13                0.000533154
    528387.141 9    410378.61247  22089684.481    22089683.8434   22089693.9244
      -898.667        -700.260
  -1852265.407 9  -1424910.07348  22300653.985    22300653.2424   22300664.0984
      2185.656        1703.109
  -1733923.110 9  -1336231.78948  21106967.986    21106967.5294   21106976.4744
      2048.842        1596.500
   -270541.295 9   -207940.69348  20797571.545    20797571.1854   20797580.1234
       214.072         166.809
   1842686.386 9   1422729.59348  21849302.147    21849301.7484   21849311.5694
     -2394.040       -1865.486
   -290315.031 8   -222944.64745  24304584.252    24304582.9814   24304598.5194
       216.586         168.768
  -1642507.924 9  -1269994.11048  21108277.965    21108278.0594   21108285.7644
      1774.766        1382.935
 80  4 13 22 21 10.0000000  0  7G31G02G27G19G18G10G13                0.000529185
    537404.852 9    417405.38747  22091400.502    22091399.8784   22091409.9444
      -904.704        -704.964
  -1874106.337 9  -1441928.94748  22296497.791    22296497.0464   22296507.8664
      2182.773        1700.862
  -1754401.370 9  -1352188.85548  21103071.077    21103070.6394   21103079.5814
      2046.995        1595.061
   -272666.770 9   -209596.90348  20797167.083    20797166.7334   20797175.6564
       211.208         164.578
   1866646.457 9   1441399.75748  21853861.629    21853861.2314   21853871.0484
     -2397.773       -1868.395
   -292453.907 8   -224611.31645  24304177.222    24304175.8654   24304191.6344
       211.273         164.628
  -1660225.840 9  -1283800.26248  21104906.356    21104906.4554   21104914.1374
      1769.100        1378.519
 80  4 13 22 21 20.0000000  0  7G31G02G27G19G18G10G13                0.000525213
    546481.238 9    424477.87447  22093127.706    22093127.0624   22093137.1364
      -911.012        -709.879
  -1895921.002 9  -1458927.34948  22292346.555    22292345.8254   22292356.6434
      2179.746        1698.503
  -1774862.677 9  -1368132.71648  21099177.430    21099176.9834   21099185.9134
      2044.866        1593.402
   -274765.183 9   -211232.03048  20796767.763    20796767.4064   20796776.3334
       208.036         162.106
   1890641.918 9   1460097.49148  21858427.843    21858427.4504   21858437.2564
     -2401.763       -1871.504
   -294541.897 8   -226238.29945  24303779.877    24303778.4724   24303794.3594
       205.870         160.418
  -1677888.677 9  -1297563.50248  21101545.235    21101545.3134   21101552.9984
      1763.138        1373.874
 80  4 13 22 21 30.0000000  0  7G31G02G27G19G18G10G13                0.000521241
    555621.421 9    431600.08547  22094867.042    22094866.4064   22094876.4604
      -917.258        -714.746
  -1917704.905 9  -1475901.78348  22288201.209    22288200.4694   22288211.2874
      2176.797        1696.205
  -1795302.009 9  -1384059.45348  21095287.947    21095287.4984   21095296.4204
      2042.761        1591.762
   -276831.313 9   -212842.00248  20796374.594    20796374.2264   20796383.1624
       204.911         159.671
   1914678.360 9   1478827.15848  21863001.859    21863001.4524   21863011.2684
     -2405.832       -1874.674
   -296574.597 8   -227822.25345  24303393.068    24303391.5824   24303407.6214
       200.411         156.164
  -1695490.914 9  -1311279.51948  21098195.640    21098195.7134   21098203.3864
      1757.136        1369.197
 80  4 13 22 21 40.0000000  0  7G31G02G27G19G18G10G13                0.000517266
    564821.244 9    438768.76747  22096617.717    22096617.0934   22096627.1464
      -923.263        -719.426
  -1939461.319 9  -1492854.80448  22284061.107    22284060.3534   22284071.1574
      2173.893        1693.943
  -1815723.404 9  -1399972.21048  21091401.893    21091401.4294   21091410.3444
      2040.935        1590.339
   -278868.807 9   -214429.65448  20795986.860    20795986.5094   20795995.4464
       201.983         157.389
   1938753.874 9   1497587.27148  21867583.309    21867582.9034   21867592.7214
     -2409.856       -1877.810
   -298554.285 8   -229364.89745  24303016.347    24303014.8824   24303031.0174
       194.961         151.918
  -1713034.721 9  -1324950.00148  21094857.168    21094857.2284   21094864.9024
      1751.098        1364.492
 80  4 13 22 21 50.0000000  0  7G31G02G27G19G18G10G13                0.000513291
    574081.904 9    445984.84347  22098379.962    22098379.3584   22098389.4074
      -928.925        -723.838
  -1961188.016 9  -1509784.67248  22279926.651    22279925.9114   22279936.6534
      2171.425        1692.019
  -1836125.991 9  -1415870.31448  21087519.392    21087518.9424   21087527.8504
      2039.561        1589.268
   -280876.743 9   -215994.27848  20795604.779    20795604.4054   20795613.3494
       199.537         155.483
   1962869.999 9   1516379.02848  21872172.482    21872172.0834   21872181.9074
     -2413.387       -1880.561
   -300478.215 8   -230864.08545  24302650.221    24302648.7874   24302664.9824
       189.770         147.873
  -1730517.158 9  -1338572.67048  21091530.350    21091530.4294   21091538.0834
      1745.450        1360.091
 80  4 13 22 22  0.0000000  0  7G31G02G27G19G18G10G13                0.000509315
    583399.781 9    453245.51247  22100153.100    22100152.4984   22100162.5514
      -934.785        -728.404
  -1982890.168 9  -1526695.41348  22275796.867    22275796.1234   22275806.8214
      2168.899        1690.051
  -1856514.480 9  -1431757.43148  21083639.578    21083639.1364   21083648.0434
      2038.027        1588.073
   -282860.059 9   -217539.72048  20795227.358    20795227.0004   20795235.9334
       197.003         153.509
   1987021.427 9   1535198.29748  21876768.370    21876767.9744   21876777.8004
     -2417.004       -1883.380
   -302350.775 8   -232323.22245  24302293.930    24302292.4874   24302308.6364
       184.546         143.802
  -1747943.335 9  -1352151.49248  21088214.241    21088214.3164   21088221.9804
      1739.794        1355.684
 80  4 13 22 22 10.0000000  0  7G31G02G27G19G18G10G13                0.000505340
    592781.157 9    460555.65847  22101938.314    22101937.7224   22101947.7734
      -940.892        -733.163
  -2004561.879 9  -1543582.42248  22271672.854    22271672.1014   22271682.8174
      2166.064        1687.842
  -1876883.341 9  -1447629.25648  21079763.500    21079763.0654   21079771.9494
      2036.412        1586.815
   -284813.971 9   -219062.24848  20794855.529    20794855.1784   20794864.1154
       194.430         151.504
   2011212.904 9   1554048.76348  21881371.882    21881371.4934   21881381.3044
     -2420.628       -1886.204
   -304166.903 8   -233738.38645  24301948.334    24301946.9314   24301963.0244
       179.300         139.714
  -1765309.161 9  -1365683.29348  21084909.626    21084909.7014   21084917.3514
      1734.076        1351.228
 80  4 13 22 22 20.0000000  0  7G31G02G27G19G18G10G13                0.000501366
    602223.888 9    467913.61947  22103735.216    22103734.6304   22103744.6814
      -947.465        -738.284
  -2026205.501 9  -1560447.53448  22267554.134    22267553.3904   22267564.1584
      2162.860        1685.345
  -1897235.775 9  -1463488.27848  21075890.559    21075890.1184   21075899.0014
      2034.219        1585.106
   -286742.035 9   -220564.62948  20794488.643    20794488.2874   20794497.2174
       191.300         149.065
   2035439.942 9   1572926.95248  21885982.165    21885981.7894   21885991.5904
     -2424.592       -1889.292
   -305930.686 8   -235112.76145  24301612.730    24301611.3384   24301627.3524
       173.675         135.331
  -1782617.672 9  -1379170.42648  21081615.917    21081615.9984   21081623.6444
      1727.881        1346.401
 80  4 13 22 22 30.0000000  0  7G31G02G27G19G18G10G13                0.000497394
    611732.566 9    475322.96347  22105544.662    22105544.0854   22105554.1344
      -954.187        -743.522
  -2047816.433 9  -1577287.19548  22263441.681    22263440.9404   22263451.7034
      2159.481        1682.712
  -1917565.127 9  -1479329.31748  21072022.012    21072021.5654   21072030.4454
      2031.771        1583.198
   -288637.633 9   -222041.71948  20794127.925    20794127.5574   20794136.4914
       187.901         146.416
   2059707.534 9   1591836.73848  21890600.166    21890599.7864   21890609.5884
     -2428.824       -1892.590
   -307638.110 8   -236443.22145  24301287.846    24301286.4234   24301302.4144
       167.897         130.829
  -1799863.141 9  -1392608.43848  21078334.201    21078334.2754   21078341.9254
      1721.414        1341.362
 80  4 13 22 22 40.0000000  0  7G31G02G27G19G18G10G13                0.000493421
    621304.541 9    482781.63147  22107366.164    22107365.5914   22107375.6464
      -959.580        -747.725
  -2069398.709 9  -1594104.53748  22259334.711    22259333.9724   22259344.6794
      2157.606        1681.251
  -1937874.818 9  -1495155.03648  21068157.198    21068156.7484   21068165.6314
      2030.779        1582.425
   -290503.581 9   -223495.70648  20793772.858    20793772.4944   20793781.4254
       185.933         144.883
   2084012.161 9   1610775.38348  21895225.222    21895224.8174   21895234.6414
     -2431.424       -1894.616
   -309291.771 9   -237731.79745  24300973.179    24300971.7494   24300987.7124
       163.439         127.355
  -1817048.393 9  -1405999.53348  21075063.946    21075064.0304   21075071.6604
      1716.392        1337.448
 80  4 13 22 22 50.0000000  0  7G31G02G27G19G18G10G13                0.000489446
    630936.723 9    490287.21547  22109199.118    22109198.5464   22109208.6064
      -966.303        -752.963
  -2090955.867 9  -1610902.29248  22255232.479    22255231.7534   22255242.4394
      2154.455        1678.796
  -1958167.372 9  -1510967.39648  21064295.642    21064295.2024   21064304.0814
      2028.324        1580.512
   -292343.818 9   -224929.65348  20793422.651    20793422.3054   20793431.2404
       182.661         142.333
   2108349.101 9   1629739.20548  21899856.407    21899856.0144   21899865.8314
     -2435.346       -1897.672
   -310894.763 8   -238980.89945  24300668.173    24300666.7204   24300682.6754
       157.731         122.907
  -1834177.684 9  -1419347.01848  21071804.338    21071804.4164   21071812.0534
      1710.118        1332.559
 80  4 13 22 23  0.0000000  0  7G31G02G27G19G18G10G13                0.000485472
    640633.110 9    497842.82547  22111044.281    22111043.7094   22111053.7804
      -972.877        -758.086
  -2112485.697 9  -1627678.74948  22251135.438    22251134.7074   22251145.4254
      2151.647        1676.608
  -1978438.343 9  -1526762.94848  21060438.197    21060437.7564   21060446.6274
      2025.978        1578.684
   -294154.840 9   -226340.83948  20793078.032    20793077.6664   20793086.6054
       179.629         139.971
   2132721.229 9   1648730.44548  21904494.303    21904493.8984   21904503.7224
     -2438.967       -1900.494
   -312444.122 9   -240188.18045  24300373.349    24300371.9234   24300387.8604
       152.252         118.638
  -1851247.570 9  -1432648.21548  21068556.040    21068556.1214   21068563.7434
      1704.073        1327.849
 80  4 13 22 23 10.0000000  0  7G31G02G27G19G18G10G13                0.000481497
    650394.987 9    505449.46947  22112901.922    22112901.3544   22112911.4154
      -979.572        -763.303
  -2133989.036 9  -1644434.57048  22247043.464    22247042.7394   22247053.4724
      2149.006        1674.550
  -1998687.179 9  -1542541.24648  21056584.957    21056584.5214   21056593.3914
      2023.710        1576.917
   -295936.335 9   -227729.01748  20792739.012    20792738.6624   20792747.6034
       176.542         137.565
   2157128.708 9   1667749.22748  21909138.920    21909138.5124   21909148.3414
     -2442.610       -1903.332
   -313939.344 9   -241353.29345  24300088.852    24300087.4194   24300103.3484
       146.746         114.348
  -1868257.583 9  -1445902.75848  21065319.122    21065319.2154   21065326.8294
      1697.910        1323.047
 80  4 13 22 23 20.0000000  0  7G31G02G27G19G18G10G13                0.000477524
    660221.691 9    513106.62747  22114771.898    22114771.3294   22114781.4094
      -986.390        -768.616
  -2155468.132 9  -1661171.49248  22242956.093    22242955.3684   22242966.1354
      2146.226        1672.384
  -2018914.615 9  -1558302.87048  21052735.815    21052735.3614   21052744.2274
      2021.182        1574.947
   -297688.509 9   -229094.34848  20792405.584    20792405.2284   20792414.1644
       173.283         135.026
   2181571.326 9   1686795.39448  21913790.219    21913789.8154   21913799.6444
     -2446.534       -1906.390
   -315381.077 9   -242476.71945  24299814.543    24299813.1284   24299829.0004
       141.026         109.890
  -1885208.046 9  -1459110.89848  21062093.549    21062093.6354   21062101.2514
      1691.679        1318.191
 80  4 13 22 23 30.0000000  0  7G31G02G27G19G18G10G13                0.000473554
    670117.706 9    520817.79647  22116655.060    22116654.4994   22116664.5834
      -992.794        -773.606
  -2176918.575 9  -1677886.10548  22238874.209    22238873.4894   22238884.2264
      2143.890        1670.564
  -2039116.644 9  -1574044.69748  21048891.476    21048891.0404   21048899.8884
      2019.208        1573.409
   -299407.410 9   -230433.75048  20792078.486    20792078.1404   20792087.0844
       170.448         132.817
   2206053.887 9   1705872.68848  21918449.118    21918448.7054   21918458.5564
     -2450.010       -1909.099
   -316764.699 9   -243554.87245  24299551.282    24299549.8964   24299565.6884
       135.756         105.784
  -1902096.011 9  -1472270.33748  21058879.858    21058879.9474   21058887.5754
      1686.038        1313.796
 80  4 13 22 23 40.0000000  0  7G31G02G27G19G18G10G13                0.000469584
    680078.770 9    528579.64547  22118550.601    22118550.0384   22118560.1344
      -999.359        -778.721
  -2198344.359 9  -1694581.50148  22234797.006    22234796.2794   22234806.9964
      2141.351        1668.585
  -2059297.465 9  -1589769.99748  21045051.184    21045050.7524   21045059.5984
      2017.037        1571.717
   -301096.355 9   -231749.81148  20791757.105    20791756.7504   20791765.6814
       167.389         130.433
   2230572.817 9   1724978.31448  21923114.915    21923114.5114   21923124.3894
     -2453.690       -1911.966
   -318094.593 9   -244591.16145  24299298.241    24299296.8614   24299312.6184
       130.247         101.491
  -1918926.954 9  -1485385.34448  21055677.021    21055677.1214   21055684.7424
      1680.354        1309.367
 80  4 13 22 23 50.0000000  0  7G31G02G27G19G18G10G13                0.000465617
    690105.500 9    536392.67447  22120458.625    22120458.0654   22120468.1704
     -1006.114        -783.985
  -2219743.478 9  -1711256.10448  22230724.855    22230724.1384   22230734.8584
      2138.352        1666.248
  -2079455.700 9  -1605477.69748  21041215.189    21041214.7524   21041223.5994
      2014.470        1569.717
   -302753.954 9   -233041.44548  20791441.664    20791441.3144   20791450.2614
       163.977         127.774
   2255129.588 9   1744113.43448  21927787.932    21927787.5234   21927797.4094
     -2457.774       -1915.149
   -319368.731 8   -245583.99745  24299055.801    24299054.4974   24299070.1724
       124.438          96.965
  -1935700.146 9  -1498455.34648  21052485.182    21052485.2744   21052492.8924
      1674.260        1304.618
 80  4 13 22 24  0.0000000  0  7G31G02G27G19G18G10G13                0.000461649
    700195.030 9    544254.63047  22122378.598    22122378.0604   22122388.1634
     -1011.806        -788.420
  -2241117.212 9  -1727910.92748  22226657.530    22226656.8074   22226667.5554
      2136.370        1664.704
  -2099592.549 9  -1621168.73248  21037383.261    21037382.8274   21037391.6754
      2012.844        1568.450
   -304382.367 9   -234310.33748  20791131.802    20791131.4424   20791140.3834
       161.667         125.974
   2279721.493 9   1763275.93148  21932467.633    21932467.2154   21932477.1214
     -2460.628       -1917.372
   -320589.767 9   -246535.46445  24298823.482    24298822.2234   24298837.8554
       119.787          93.341
  -1952417.658 9  -1511481.96448  21049303.912    21049304.0224   21049311.6484
      1669.306        1300.758
 80  4 13 22 24 10.0000000  0  7G31G02G27G19G18G10G13                0.000457681
    710349.552 9    552167.22447  22124310.948    22124310.4174   22124320.5264
     -1018.812        -793.879
  -2262463.050 9  -1744544.02348  22222595.539    22222594.8064   22222605.5594
      2133.081        1662.141
  -2119704.567 9  -1636840.42548  21033556.061    21033555.6284   21033564.4674
      2009.795        1566.074
   -305979.220 9   -235554.63848  20790827.925    20790827.5784   20790836.5264
       157.930         123.062
   2304350.384 9   1782467.23848  21937154.370    21937153.9524   21937163.8684
     -2464.872       -1920.679
   -321756.407 9   -247444.53945  24298601.506    24298600.2914   24298615.8654
       113.835          88.703
  -1969077.725 9  -1524463.82648  21046133.593    21046133.7214   21046141.3334
      1663.093        1295.917
 80  4 13 22 24 20.0000000  0  7G31G02G27G19G18G10G13                0.000453710
    720565.902 9    560128.00247  22126255.073    22126254.5484   22126264.6454
     -1025.000        -798.701
  -2283783.192 9  -1761157.09648  22218538.457    22218537.7284   22218548.4484
      2130.396        1660.049
  -2139793.964 9  -1652494.48248  21029733.157    21029732.7224   21029741.5684
      2007.529        1564.308
   -307546.199 9   -236775.65748  20790529.750    20790529.4064   20790538.3404
       154.895         120.697
   2329013.798 9   1801685.45847  21941847.682    21941847.2694   21941857.1954
     -2468.355       -1923.394
   -322872.058 9   -248313.88845  24298389.213    24298388.0374   24298403.5624
       108.709          84.708
  -1985683.285 9  -1537403.20748  21042973.652    21042973.7714   21042981.3944
      1657.556        1291.602
 80  4 13 22 24 30.0000000  0  7G31G02G27G19G18G10G13                0.000449736
    730844.595 9    568137.36047  22128211.066    22128210.5374   22128220.6284
     -1030.950        -803.338
  -2305075.961 9  -1777748.84048  22214486.560    22214485.8294   22214496.5274
      2127.997        1658.179
  -2159860.205 9  -1668130.50348  21025914.661    21025914.2374   21025923.0864
      2005.499        1562.726
   -309082.322 9   -237972.64248  20790237.447    20790237.0844   20790246.0234
       152.102         118.521
   2353712.506 9   1820931.17348  21946547.716    21946547.2964   21946557.2204
     -2471.590       -1925.914
   -323936.135 8   -249143.03545  24298186.730    24298185.5744   24298201.0774
       103.873          80.940
  -2002232.738 9  -1550298.87448  21039824.413    21039824.5164   21039832.1264
      1652.207        1287.434
 80  4 13 22 24 40.0000000  0  8G31G02G27G19G07G18G10G13             0.000445740
    741187.791 9    576196.98547  22130179.326    22130178.8074   22130188.9024
     -1037.559        -808.488
  -2326340.254 9  -1794318.38848  22210440.053    22210439.3194   22210450.0094
      2124.973        1655.823
  -2179900.220 9  -1683746.08448  21022101.163    21022100.7404   21022109.5804
      2002.615        1560.479
   -310584.329 9   -239143.03248  20789951.622    20789951.2624   20789960.2184
       148.431         115.661
  -1446192.03818   -809715.43655  24687217.653    24687216.2705   24687235.0275
      4159.154        3240.899
   2378449.169 9   1840206.46747  21951254.963    21951254.5444   21951264.4954
     -2475.624       -1929.058
   -324945.937 8   -249929.89245  24297994.583    24297993.4424   24298008.8874
        98.162          76.490
  -2018723.296 9  -1563148.64248  21036686.359    21036686.4664   21036694.0654
      1646.089        1282.667
 80  4 13 22 24 50.0000000  0  8G31G02G27G19G07G18G10G13             0.000441771
    751593.772 9    584305.52947  22132159.542    22132159.0224   22132169.1064
     -1044.025        -813.526
  -2347577.839 9  -1810867.13348  22206398.619    22206397.8984   22206408.5734
      2122.161        1653.632
  -2199916.222 9  -1699342.96148  21018292.241    21018291.8084   21018300.6474
      2000.179        1558.581
   -312054.001 9   -240288.23148  20789671.955    20789671.5954   20789680.5524
       145.082         113.051
  -1487783.394 8   -842124.11545  24679303.021    24679301.6694   24679320.4414
      4158.824        3240.642
   2403222.072 9   1859509.99247  21955969.118    21955968.6984   21955978.6524
     -2479.339       -1931.952
   -325902.342 8   -250675.15445  24297812.601    24297811.4814   24297826.8674
        92.735          72.261
  -2035156.444 9  -1575953.68548  21033559.251    21033559.3584   21033566.9434
      1640.221        1278.094
 80  4 13 22 25  0.0000000  0  8G31G02G27G19G07G18G10G13             0.000437802
    762064.550 9    592464.55947  22134152.086    22134151.5554   22134161.6364
     -1050.360        -818.462
  -2368786.419 9  -1827393.28248  22202362.767    22202362.0424   22202372.6644
      2119.291        1651.396
  -2219906.964 9  -1714920.14648  21014488.111    21014487.6884   21014496.5244
      1997.719        1556.664
   -313489.585 9   -241406.86648  20789398.770    20789398.4154   20789407.3554
       141.764         110.465
  -1529372.347 8   -874530.91245  24671388.824    24671387.6044   24671406.2654
      4158.738        3240.575
   2428032.778 9   1878842.98447  21960690.458    21960690.0534   21960699.9934
     -2483.108       -1934.889
   -326804.230 8   -251377.93445  24297641.000    24297639.9184   24297655.2454
        87.405          68.108
  -2051530.100 9  -1588712.36448  21030443.444    21030443.5494   21030451.1364
      1634.332        1273.505
 80  4 13 22 25 10.0000000  0  8G31G02G27G19G07G18G10G13             0.000433832
    772598.606 9    600672.90247  22136156.664    22136156.1334   22136166.2254
     -1056.824        -823.499
  -2389965.786 9  -1843896.66448  22198332.453    22198331.7264   22198342.3454
      2116.230        1649.010
  -2239872.931 9  -1730478.03348  21010688.708    21010688.2744   21010697.1174
      1995.138        1554.653
   -314891.287 9   -242499.10048  20789132.027    20789131.6694   20789140.6214
       138.186         107.677
  -1570959.587 8   -906936.38545  24663474.945    24663473.7464   24663492.4074
      4158.383        3240.298
   2452882.763 9   1898206.58147  21965419.274    21965418.8664   21965428.8024
     -2487.288       -1938.146
   -327652.497 8   -252038.93545  24297479.590    24297478.5234   24297493.8504
        81.855          63.783
  -2067844.188 9  -1601424.62848  21027338.972    21027339.0774   21027346.6624
      1628.211        1268.736
 80  4 13 22 25 20.0000000  0  8G31G02G27G19G07G18G10G13             0.000429860
    783194.475 9    608929.41047  22138173.012    22138172.4834   22138182.5534
     -1062.591        -827.993
  -2411117.040 9  -1860378.12748  22194307.448    22194306.7314   22194317.3654
      2113.747        1647.076
  -2259816.835 9  -1746018.72148  21006893.489    21006893.0674   21006901.9024
      1993.416        1553.311
   -316260.108 9   -243565.71448  20788871.541    20788871.1914   20788880.1524
       135.274         105.408
  -1612545.611 8   -939340.89545  24655561.280    24655560.0374   24655578.7424
      4158.700        3240.545
   2477772.067 9   1917600.81547  21970155.569    21970155.1604   21970165.1004
     -2490.841       -1940.915
   -328447.377 8   -252658.33745  24297328.354    24297327.2874   24297342.5834
        76.869          59.898
  -2084100.111 9  -1614091.56748  21024245.565    21024245.6674   21024253.2574
      1622.783        1264.506
 80  4 13 22 25 30.0000000  0  8G31G02G27G19G07G18G10G13             0.000425888
    793851.742 9    617233.76247  22140201.047    22140200.5044   22140210.5794
     -1068.805        -832.835
  -2432238.546 9  -1876836.41548  22190288.121    22190287.4034   22190298.0454
      2110.639        1644.654
  -2279740.107 9  -1761543.34248  21003102.212    21003101.7754   21003110.6144
      1991.289        1551.654
   -317594.921 9   -244605.82948  20788617.549    20788617.1774   20788626.1404
       131.736         102.651
  -1654129.337 8   -971743.60445  24647648.045    24647646.7104   24647665.5864
      4158.273        3240.213
   2502701.795 9   1937026.54347  21974899.543    21974899.1534   21974909.0974
     -2495.038       -1944.185
   -329187.771 8   -253235.27245  24297187.472    24297186.3294   24297201.7104
        71.292          55.552
  -2100297.330 9  -1626712.76548  21021163.350    21021163.4374   21021171.0314
      1616.819        1259.859
 80  4 13 22 25 40.0000000  0  8G31G02G27G19G07G18G10G13             0.000421915
    804568.779 9    625584.68847  22142240.451    22142239.9084   22142249.9884
     -1074.660        -837.397
  -2453331.098 9  -1893272.15148  22186274.329    22186273.6164   22186284.2424
      2107.835        1642.469
  -2299645.175 9  -1777053.76648  20999314.389    20999313.9594   20999322.7944
      1989.687        1550.405
   -318896.963 9   -245620.40448  20788369.781    20788369.4174   20788378.3734
       128.582         100.194
  -1695711.587 8  -1004145.17645  24639735.101    24639733.7704   24639752.7814
      4158.281        3240.219
   2527671.047 9   1956483.07747  21979651.060    21979650.6774   21979660.6124
     -2498.885       -1947.183
   -329874.612 8   -253770.48445  24297056.787    24297055.6074   24297071.0604
        66.069          51.482
  -2116437.831 9  -1639289.76548  21018091.897    21018091.9914   21018099.5764
      1611.283        1255.545
 80  4 13 22 25 50.0000000  0  8G31G02G27G19G07G18G10G13             0.000417943
    815347.978 9    633984.05647  22144291.675    22144291.1324   22144301.2334
     -1081.441        -842.681
  -2474392.849 9  -1909683.88648  22182266.430    22182265.7134   22182276.2984
      2104.264        1639.686
  -2319530.703 9  -1792548.97048  20995530.283    20995529.8524   20995538.6954
      1987.162        1548.438
   -320164.491 9   -246608.08748  20788128.578    20788128.2224   20788137.1784
       124.675          97.149
  -1737290.491 8  -1036544.14245  24631822.814    24631821.4774   24631840.5134
      4157.463        3239.582
   2552682.203 9   1975972.26247  21984410.560    21984410.1724   21984420.1044
     -2503.619       -1950.872
   -330506.669 8   -254263.00645  24296936.517    24296935.3514   24296950.8164
        60.118          46.845
  -2132518.658 9  -1651820.27148  21015031.814    21015031.9034   21015039.4874
      1604.695        1250.412
 80  4 13 22 26  0.0000000  0  8G31G02G27G19G07G18G10G13             0.000413972
    826191.083 9    642433.21347  22146355.044    22146354.5184   22146364.6154
     -1087.451        -847.364
  -2495422.768 9  -1926070.81748  22178264.581    22178263.8464   22178274.4024
      2101.472        1637.511
  -2339395.260 9  -1808027.83248  20991750.171    20991749.7444   20991758.5804
      1985.480        1547.127
   -321397.253 9   -247568.68048  20787893.987    20787893.6404   20787902.5984
       121.596          94.750
  -1778864.994 8  -1068939.66545  24623911.337    24623909.9824   24623929.0734
      4157.445        3239.568
   2577737.295 9   1995495.67947  21989178.425    21989178.0204   21989187.9494
     -2507.658       -1954.019
   -331083.048 8   -254712.15045  24296826.856    24296825.6824   24296841.1744
        54.907          42.785
  -2148536.311 9  -1664301.54248  21011983.755    21011983.8344   21011991.4274
      1598.626        1245.683
 80  4 13 22 26 10.0000000  0  8G31G02G27G19G07G18G10G13             0.000410000
    837092.142 9    650927.52947  22148429.460    22148428.9184   22148439.0274
     -1092.988        -851.679
  -2516427.266 9  -1942437.92548  22174267.510    22174266.7864   22174277.3534
      2099.264        1635.790
  -2359245.270 9  -1823495.35748  20987972.827    20987972.4014   20987981.2434
      1984.347        1546.244
   -322601.428 9   -248506.99848  20787664.858    20787664.4954   20787673.4484
       119.016          92.740
  -1820442.882 8  -1101337.81745  24615999.206    24615997.8954   24616016.9584
      4158.191        3240.149
   2602830.566 9   2015048.85247  21993953.536    21993953.1384   21993963.0724
     -2511.159       -1956.747
   -331609.525 8   -255122.38445  24296726.685    24296725.5354   24296741.0084
        50.252          39.157
  -2164494.607 9  -1676736.57048  21008946.972    21008947.0564   21008954.6594
      1592.957        1241.265
 80  4 13 22 26 20.0000000  0  8G31G02G27G19G07G18G10G13             0.000406030
    848059.004 9    659473.12347  22150516.386    22150515.8364   22150525.9714
     -1099.873        -857.044
  -2537400.212 9  -1958780.45048  22170276.460    22170275.7364   22170286.3304
      2095.856        1633.135
  -2379074.563 9  -1838946.74448  20984199.444    20984199.0084   20984207.8444
      1982.030        1544.439
   -323769.570 9   -249417.23948  20787442.569    20787442.2124   20787451.1634
       115.109          89.695
  -1862019.107 8  -1133734.68445  24608087.404    24608086.1144   24608105.1454
      4157.798        3239.843
   2627968.422 9   2034636.76147  21998737.152    21998736.7444   21998746.6764
     -2515.920       -1960.457
   -332079.711 8   -255488.77245  24296637.193    24296636.0874   24296651.5234
        44.313          34.530
  -2180386.918 9  -1689120.17448  21005922.755    21005922.8384   21005930.4414
      1586.106        1235.927
 80  4 13 22 26 30.0000000  0  8G31G02G27G19G07G18G10G13             0.000402062
    859089.335 9    668068.17947  22152615.379    22152614.8564   22152624.9864
     -1105.970        -861.795
  -2558344.905 9  -1975100.96248  22166290.803    22166290.0834   22166300.6874
      2093.302        1631.144
  -2398886.577 9  -1854384.66048  20980429.332    20980428.8974   20980437.7274
      1980.559        1543.293
   -324903.812 9   -250301.06048  20787226.734    20787226.3814   20787235.3254
       111.976          87.254
  -1903597.388 8  -1166133.14845  24600175.216    24600173.9794   24600192.9684
      4158.227        3240.177
   2653148.637 9   2054257.68447  22003528.820    22003528.4054   22003538.3404
     -2519.890       -1963.551
   -332495.097 8   -255812.45145  24296558.164    24296557.0964   24296572.4634
        39.021          30.406
  -2196216.401 9  -1701454.82548  21002910.487    21002910.5794   21002918.1784
      1580.133        1231.272
 80  4 13 22 26 40.0000000  0  8G31G02G27G19G07G18G10G13             0.000398094
    870181.740 9    676711.59547  22154726.191    22154725.6674   22154735.8134
     -1112.554        -866.925
  -2579262.666 9  -1991400.49248  22162310.252    22162309.5314   22162320.1254
      2090.285        1628.794
  -2418682.334 9  -1869809.91548  20976662.318    20976661.8844   20976670.7054
      1978.538        1541.718
   -326006.286 9   -251160.13648  20787016.943    20787016.5784   20787025.5294
       108.443          84.501
  -1945179.712 8  -1198534.77045  24592262.249    24592261.0774   24592280.0234
      4158.326        3240.254
   2678369.804 9   2073910.50847  22008328.260    22008327.8384   22008337.7904
     -2524.398       -1967.063
   -332856.226 8   -256093.85945  24296489.441    24296488.3674   24296503.7324
        33.157          25.837
  -2211984.703 9  -1713741.80448  20999909.870    20999909.9594   20999917.5614
      1573.599        1226.181
 80  4 13 22 26 50.0000000  0  8G31G02G27G19G07G18G10G13             0.000394130
    881338.025 9    685404.79747  22156849.176    22156848.6444   22156858.8024
     -1119.036        -871.976
  -2600152.422 9  -2007678.20648  22158335.050    22158334.3394   22158344.8914
      2087.319        1626.482
  -2438459.212 9  -1885220.45548  20972898.904    20972898.4674   20972907.2824
      1976.498        1540.128
   -327075.271 9   -251993.10948  20786813.532    20786813.1634   20786822.1004
       104.967          81.792
  -1986763.641 8  -1230937.63145  24584348.980    24584347.8394   24584366.7924
      4158.277        3240.216
   2703634.220 9   2093597.03347  22013135.943    22013135.5264   22013145.4844
     -2528.858       -1970.539
   -333160.952 8   -256331.33145  24296431.439    24296430.3594   24296445.7294
        27.383          21.337
  -2227689.880 9  -1725979.59348  20996921.272    20996921.3644   20996928.9454
      1567.182        1221.181
 80  4 13 22 27  0.0000000  0  8G31G02G27G19G07G18G10G13             0.000390165
    892553.802 9    694144.34847  22158983.476    22158982.9444   22158993.1014
     -1124.060        -875.891
  -2621016.759 9  -2023936.11448  22154364.705    22154363.9734   22154374.4934
      2085.652        1625.183
  -2458221.017 9  -1900619.25948  20969138.347    20969137.9114   20969146.7184
      1975.942        1539.695
   -328114.583 9   -252802.96648  20786615.750    20786615.3874   20786624.3314
       102.974          80.239
  -2028351.858 8  -1263343.83945  24576434.904    24576433.7794   24576452.7244
      4159.509        3241.176
   2728938.754 9   2113314.81747  22017951.258    22017950.8314   22017960.8064
     -2531.931       -1972.933
   -333412.428 8   -256527.29845  24296383.567    24296382.4604   24296397.8494
        23.007          17.928
  -2243335.661 9  -1738171.10348  20993943.980    20993944.0654   20993951.6484
      1562.142        1217.254
 80  4 13 22 27 10.0000000  0  8G31G02G27G19G07G18G10G13             0.000386202
    903830.539 9    702931.40947  22161129.371    22161128.8494   22161139.0114
     -1130.743        -881.098
  -2641854.146 9  -2040173.00948  22150399.453    22150398.7294   22150409.2514
      2082.377        1622.631
  -2477967.481 9  -1916006.09748  20965380.696    20965380.2604   20965389.0924
      1973.855        1538.069
   -329123.653 9   -253589.25048  20786423.727    20786423.3774   20786432.3194
        99.326          77.397
  -2069941.725 8  -1295751.32545  24568520.492    24568519.3864   24568538.3204
      4159.102        3240.859
   2754284.481 9   2133064.70447  22022774.405    22022774.0014   22022783.9674
     -2536.722       -1976.666
   -333609.663 8   -256680.99845  24296346.030    24296344.8574   24296360.3354
        16.963          13.218
  -2258921.027 9  -1750315.52948  20990978.175    20990978.2674   20990985.8364
      1555.525        1212.097
 80  4 13 22 27 20.0000000  0  8G31G02G27G19G07G18G10G13             0.000382240
    915167.754 9    711765.58747  22163286.789    22163286.2614   22163296.4394
     -1136.669        -885.716
  -2662664.861 9  -2056389.12348  22146439.288    22146438.5514   22146449.0854
      2079.866        1620.675
  -2497697.945 9  -1931380.47448  20961626.109    20961625.6784   20961634.5024
      1972.317        1536.870
   -330102.298 9   -254351.83048  20786237.508    20786237.1394   20786246.0894
        96.423          75.135
  -2111532.198 8  -1328159.27145  24560605.948    24560604.8764   24560623.8134
      4159.201        3240.936
   2779672.010 9   2152847.16747  22027605.504    22027605.1114   22027615.0804
     -2540.697       -1979.764
   -333752.094 8   -256791.97245  24296318.924    24296317.7584   24296333.2814
        11.498           8.959
  -2274446.425 9  -1762413.22748  20988023.781    20988023.8714   20988031.4484
      1549.716        1207.571
 80  4 13 22 27 30.0000000  0  8G31G02G27G19G07G18G10G13             0.000378282
    926566.111 9    720647.41247  22165455.821    22165455.3054   22165465.4834
     -1143.339        -890.914
  -2683449.692 9  -2072585.06948  22142484.046    22142483.3124   22142493.8284
      2076.779        1618.269
  -2517412.223 9  -1946742.23948  20957874.600    20957874.1614   20957882.9944
      1970.151        1535.183
   -331050.269 9   -255090.50748  20786057.117    20786056.7514   20786065.6994
        92.807          72.317
  -2153122.178 8  -1360566.84245  24552691.478    24552690.4064   24552709.3904
      4158.594        3240.463
   2805099.962 9   2172661.11847  22032444.303    22032443.9104   22032453.9004
     -2545.179       -1983.256
   -333839.036 8   -256859.74545  24296302.385    24296301.2244   24296316.7674
         5.521           4.302
  -2289912.163 9  -1774464.44148  20985080.732    20985080.8334   20985088.4004
      1543.182        1202.479
 80  4 13 22 27 40.0000000  0  8G31G02G27G19G07G18G10G13             0.000374326
    938027.566 9    729578.40447  22167636.872    22167636.3614   22167646.5474
     -1149.220        -895.496
  -2704206.709 9  -2088759.34548  22138534.090    22138533.3634   22138543.8724
      2074.375        1616.396
  -2537106.916 9  -1962088.74148  20954126.827    20954126.3874   20954135.2084
      1968.453        1533.859
   -331964.864 9   -255803.18048  20785883.068    20785882.7244   20785891.6624
        89.796          69.971
  -2194708.969 8  -1392971.97145  24544777.635    24544776.6334   24544795.5734
      4158.598        3240.466
   2830568.793 9   2192506.92947  22037290.898    22037290.5024   22037300.4914
     -2548.847       -1986.115
   -333869.204 8   -256883.25945  24296296.629    24296295.4924   24296311.0014
         0.256           0.199
  -2305315.746 9  -1786467.22248  20982149.522    20982149.6274   20982157.1984
      1537.318        1197.910
 80  4 13 22 27 50.0000000  0  8G31G02G27G19G07G18G10G13             0.000370373
    949550.860 9    738557.57747  22169829.708    22169829.1854   22169839.3754
     -1154.993        -899.995
  -2724937.850 9  -2104913.45648  22134589.060    22134588.3384   22134598.8574
      2072.338        1614.809
  -2556780.665 9  -1977418.92548  20950383.032    20950382.5884   20950391.4054
      1966.718        1532.508
   -332846.590 9   -256490.23748  20785715.294    20785714.9284   20785723.8674
        87.014          67.803
  -2236293.749 8  -1425375.53645  24536864.174    24536863.1704   24536882.1174
      4158.925        3240.721
   2856076.111 9   2212382.72647  22042144.804    22042144.4154   22042154.3984
     -2552.140       -1988.681
   -333844.798 8   -256864.23545  24296301.258    24296300.1294   24296315.6334
        -4.698          -3.661
  -2320658.311 9  -1798422.45748  20979229.926    20979230.0174   20979237.5894
      1531.734        1193.559
 80  4 13 22 28  0.0000000  0  8G31G02G27G19G07G18G10G13             0.000366419
    961134.821 9    747584.02947  22172034.076    22172033.5494   22172043.7484
     -1161.066        -904.727
  -2745645.989 9  -2121049.64448  22130648.436    22130647.7004   22130658.2174
      2070.030        1613.010
  -2576432.927 9  -1992732.36148  20946643.307    20946642.8784   20946651.7014
      1964.433        1530.727
   -333697.892 9   -257153.59048  20785553.290    20785552.9344   20785561.8714
        83.955          65.419
  -2277877.955 8  -1457778.66845  24528950.820    24528949.8084   24528968.7864
      4158.832        3240.648
   2881619.144 9   2232286.36147  22047005.506    22047005.1144   22047015.1184
     -2555.722       -1991.472
   -333768.185 9   -256804.55545  24296315.850    24296314.7254   24296330.1554
        -9.905          -7.718
  -2335941.800 9  -1810331.65848  20976321.553    20976321.6524   20976329.2304
      1525.782        1188.921
 80  4 13 22 28 10.0000000  0  8G31G02G27G19G07G18G10G13             0.000362466
    972779.135 9    756657.50847  22174249.936    22174249.4104   22174259.6034
     -1167.339        -909.615
  -2766331.160 9  -2137167.92748  22126712.157    22126711.4274   22126721.9404
      2067.452        1611.002
  -2596061.638 9  -2008027.44648  20942908.070    20942907.6424   20942916.4744
      1961.729        1528.620
   -334518.506 9   -257793.02748  20785397.122    20785396.7624   20785405.7054
        80.541          62.759
  -2319460.976 8  -1490180.88445  24521037.714    24521036.6974   24521055.6944
      4158.357        3240.278
   2907197.428 9   2252217.45947  22051872.920    22051872.5074   22051882.5334
     -2559.473       -1994.395
   -333639.019 8   -256703.90845  24296340.442    24296339.3144   24296354.7424
       -15.545         -12.113
  -2351165.999 9  -1822194.65648  20973424.470    20973424.5744   20973432.1534
      1519.603        1184.106
 80  4 13 22 28 20.0000000  0  8G31G02G27G19G07G18G10G13             0.000358511
    984481.742 9    765776.41447  22176476.899    22176476.3634   22176486.5644
     -1173.691        -914.564
  -2786994.083 9  -2153268.87648  22122780.122    22122779.3874   22122789.9104
      2064.679        1608.841
  -2615667.663 9  -2023304.85748  20939177.167    20939176.7314   20939185.5594
      1958.983        1526.480
   -335308.643 9   -258408.71748  20785246.763    20785246.4124   20785255.3474
        76.988          59.991
  -2361043.077 9  -1522582.37045  24513124.784    24513123.7704   24513142.7874
      4157.754        3239.808
   2932808.743 9   2272174.29647  22056746.607    22056746.2094   22056756.2414
     -2563.251       -1997.338
   -333457.433 8   -256562.41545  24296374.992    24296373.8964   24296389.3244
       -21.296         -16.594
  -2366332.921 9  -1834013.02548  20970538.295    20970538.4064   20970545.9714
      1513.461        1179.320
